     2.10           OBSERVATION DATA    G (GPS)             RINEX VERSION / TYPE
teqc 2002Mar14 Lou Estey 20020315 16:10:10UTC               PGM / RUN BY / DATE
Solaris 2.7|Ultra 2|cc SC5.0|=+-|*Sparc                     COMMENT
BIT 2 OF LLI FLAGS DATA COLLECTED UNDER A/S CONDITION       COMMENT
DE01                                                        MARKER NAME
___ -Unknown-                                               OBSERVER / AGENCY
187 ASHTECH Z-XII3 1E95                                     REC # / TYPE / VERS
SLV -Unknown-                                               ANT # / TYPE
 -1283319.1469 -4712962.7723  4090271.9469                  APPROX POSITION XYZ
        0.0000        0.0000        0.0000                  ANTENNA: DELTA H/E/N
     1     1                                                WAVELENGTH FACT L1/2
     7    L1    L2    C1    P2    P1    D1    D2            # / TYPES OF OBSERV
SNR is mapped to RINEX snr flag value [1-9]                 COMMENT
L1: 1 -> 1; 90 -> 5; 210 -> 9                               COMMENT
L2: 1 -> 1; 150 -> 5; 250 -> 9                              COMMENT
  1997     8    18     0     0   30.0000000     GPS         TIME OF FIRST OBS
                                                            END OF HEADER
 97  8 18  0  0 30.0000000  0  9G 1G14G25G29G 5G23G21G30G15
 -19699753.41849   2868972.27447  21151992.0334   21151998.7814   21151991.1214

  -4288087.03249  -2916094.55645  24698776.8884   24698784.2474   24698775.1944

 -21537174.88249  -5391849.60747  21359528.6384   21359534.7364   21359527.9374

 -14995913.44949  -4577725.73946  22197933.4554   22197939.7324   22197932.9514

  -3681962.15549     -3015.78145  24951038.0494   24951045.4924   24951037.0864

   5981884.41449   7389935.50345  25247055.7944   25247065.0824   25247055.1574

 -14807002.70049   4708615.60446  21908674.9614   21908682.1644   21908673.9414

  -8870639.25849  -4194420.25145  24100665.2764   24100672.1774   24100665.1974

 -17062989.38249  -3682545.65247  21588510.5734   21588517.6954   21588509.4764

 97  8 18  0  0 59.9990000  0  9G 1G14G25G29G 5G23G21G30G15
 -19649768.86449   2907921.27547  20861711.3574   20861718.3464   20861710.3884

  -4374579.03949  -2983490.88145  24382525.5714   24382533.1974   24382525.7794

 -21585226.39949  -5429292.32947  21050592.2384   21050598.2984   21050591.4494

 -15042985.41349  -4614405.18346  21889183.4814   21889189.9494   21889183.0544

  -3656500.79649     16824.23745  24656090.7604   24656098.4904   24656089.4544

   6083633.51049   7469220.47845  24966625.5434   24966634.3944   24966624.8554

 -14728835.64449   4769524.97746  21623757.1874   21623764.6444   21623756.2854

  -8906533.45849  -4222389.71145  23794042.1764   23794050.2044   23794041.1584

 -17080274.69249  -3696014.71947  21285428.8574   21285435.2814   21285427.8754

 97  8 18  0  1 29.9990000  0  9G 1G14G25G29G 5G23G21G30G15
 -19599492.13249   2947097.94747  20871278.7094   20871285.5604   20871277.8754

  -4461046.07749  -3050867.73445  24366071.4344   24366079.9074   24366070.5004

 -21632790.76149  -5466355.45347  21041541.0484   21041547.0184   21041540.4154

 -15089835.25849  -4650911.54146  21880268.2384   21880274.9254   21880267.7364

  -3630505.95949     37079.93345  24661037.5814   24661046.4604   24661037.1394

   6185542.10049   7548629.70545  24986018.1984   24986026.2434   24986017.8604

 -14650288.92649   4830730.20446  21638704.1774   21638712.0234   21638703.0984

  -8941978.52349  -4250009.18745  23787297.0674   23787304.2674   23787296.0384

 -17096907.54749  -3708975.38947  21282263.7044   21282270.7284   21282262.5464

 97  8 18  0  1 59.9990000  0  9G 1G14G25G29G 5G23G21G30G15
 -19548980.69049   2986457.50747  20880890.6894   20880897.5484   20880889.9114

  -4547522.89249  -3118252.20845  24349615.4564   24349622.7244   24349615.1324

 -21679942.15849  -5503096.78447  21032568.4084   21032574.6234   21032567.9564

 -15136517.73949  -4687287.48646  21871384.8924   21871391.7704   21871384.0164

  -3604027.90249     57712.16745  24666076.2434   24666083.7944   24666075.4814

   6287576.65049   7628137.12245  25005434.8494   25005443.3074   25005434.3384

 -14571403.71249   4892199.17746  21653715.5444   21653721.7724   21653714.6954

  -8977003.85249  -4277301.61145  23780631.8644   23780639.0744   23780631.3224

 -17112928.48949  -3721459.24347  21279215.0154   21279221.5184   21279214.0474

 97  8 18  0  2 29.9990000  0  9G 1G14G25G29G 5G23G21G30G15
 -19498223.86549   3026008.28047  20890549.4394   20890556.1244   20890548.8044

  -4633976.96149  -3185618.96345  24333163.8624   24333170.9254   24333163.1224

 -21726671.31849  -5539509.09747  21023676.1714   21023682.2224   21023675.5424

 -15182996.33549  -4723504.55646  21862540.2954   21862546.8054   21862539.6894

  -3577032.04649     78747.88545  24671213.4554   24671220.4794   24671211.8854

   6389768.12149   7707766.81445  25024881.2504   25024889.4214   25024879.5664

 -14492145.97849   4953958.43346  21668797.8644   21668804.4994   21668796.7444

  -9011587.90849  -4304250.18845  23774050.6594   23774058.3814   23774049.7384

 -17128314.74849  -3733448.54147  21276287.1344   21276294.0334   21276286.0044

 97  8 18  0  2 59.9990000  0  9G 1G14G25G29G 5G23G21G30G15
 -19447237.20949   3065738.14147  20900251.8824   20900258.3434   20900250.9274

  -4720416.69449  -3252974.54845  24316714.9374   24316722.1974   24316714.0794

 -21772993.02349  -5575603.91547  21014861.4084   21014867.7824   21014860.8354

 -15229264.62249  -4759557.74747  21853735.7584   21853742.4324   21853735.2644

  -3549512.77649    100191.43945  24676450.1804   24676458.5344   24676449.2604

   6492109.97549   7787513.69445  25044356.2524   25044365.1884   25044355.1344

 -14412511.00649   5016011.63546  21683951.8954   21683959.3324   21683950.8034

  -9045738.51849  -4330861.02445  23767551.9774   23767559.9724   23767552.2164

 -17143068.72349  -3744945.14147  21273479.5094   21273486.3404   21273478.8374

 97  8 18  0  3 29.9990000  0  9G 1G14G25G29G 5G23G21G30G15
 -19396047.00349   3105626.61247  20909993.0154   20909999.6204   20909992.0244

  -4806855.67349  -3320329.54545  24300266.1154   24300273.6144   24300264.8874

 -21818931.84549  -5611400.38147  21006119.5724   21006125.9404   21006118.9764

 -15275339.12349  -4795459.94547  21844968.1044   21844974.4744   21844967.2644

  -3521480.70449    122034.59545  24681784.4494   24681792.2474   24681783.8274

   6594585.62549   7867364.83845  25063856.8004   25063866.2644   25063856.0044

 -14332515.26349   5078345.95746  21699174.5674   21699181.5004   21699173.9944

  -9079470.78149  -4357145.85345  23761132.9024   23761140.6364   23761132.8804

 -17157207.22249  -3755962.15647  21270789.1314   21270795.9364   21270788.3204

 97  8 18  0  3 59.9990000  0  9G 1G14G25G29G 5G23G21G30G15
 -19344667.28249   3145662.75047  20919770.2634   20919777.1214   20919769.2454

  -4893290.03049  -3387680.94145  24283818.1934   24283825.8974   24283817.0434

 -21864451.88649  -5646870.52047  20997457.3294   20997463.8644   20997456.8934

 -15321195.16149  -4831191.91047  21836241.9584   21836248.3544   21836241.1154

  -3492910.37349    144297.17145  24687221.3274   24687229.9564   24687221.1024

   6697203.62749   7947326.89945  25083384.4534   25083393.9874   25083383.3154

 -14252160.31149   5140960.17346  21714465.6374   21714473.6664   21714464.5794

  -9112757.59649  -4383083.61145  23754798.6524   23754806.9984   23754798.2954

 -17170719.04049  -3766490.84247  21268217.9344   21268224.8184   21268216.7604

 97  8 18  0  4 29.9990000  0  9G 1G14G25G29G 5G23G21G30G15
 -19293085.70049   3185856.18947  20929585.9054   20929592.6434   20929584.9004

  -4979712.17849  -3455022.83145  24267372.5794   24267380.8834   24267371.4184

 -21909514.50849  -5681984.23047  20988882.2184   20988888.6984   20988881.3604

 -15366805.69149  -4866732.55647  21827562.5674   21827569.3084   21827562.1834

  -3463790.69149    166987.80245  24692762.6794   24692770.5864   24692761.5674

   6799979.32449   8027411.83845  25102942.0114   25102951.1174   25102941.2054

 -14171431.02549   5203866.07446  21729827.8844   21729835.3664   21729827.1444

  -9145588.15349  -4408665.83545  23748551.2624   23748557.8164   23748551.0104

 -17183592.52949  -3776522.12747  21265768.1414   21265774.9634   21265766.9464

 97  8 18  0  4 59.9990000  0  9G 1G14G25G29G 5G23G21G30G15
 -19241294.30349   3226213.11647  20939441.4764   20939448.4134   20939440.5774

  -5066130.55049  -3522361.77545  24250927.6824   24250935.4724   24250926.4834

 -21954107.28249  -5716731.83047  20980396.4324   20980402.7164   20980395.6144

 -15412167.86949  -4902079.68547  21818930.3764   21818937.0354   21818929.9594

  -3434143.16449    190089.73645  24698404.3944   24698412.8234   24698403.7214

   6902913.25849   8107620.12844  25122529.7334   25122537.2624   25122528.7454

 -14090345.16749   5267049.82946  21745258.0714   21745265.6514   21745257.1624

  -9177956.05549  -4433887.55945  23742391.8204   23742399.3394   23742391.6244

 -17195825.94649  -3786054.66047  21263440.2204   21263447.1524   21263439.2374

 97  8 18  0  5 29.9990000  0  9G 1G14G25G29G 5G23G21G30G15
 -19189307.14949   3266722.57847  20949334.2934   20949341.1464   20949333.4584

  -5152578.03249  -3589723.42145  24234477.2514   24234484.5874   24234476.1514

 -21998240.11249  -5751121.02747  20971998.1904   20972004.4164   20971997.8584

 -15457323.98049  -4937266.23447  21810337.4444   21810344.1124   21810336.9484

  -3404011.54749    213568.86245  24704138.2424   24704146.1284   24704137.5814

   7005976.99249   8187929.52544  25142142.1664   25142150.3964   25142139.8494

 -14008953.87349   5330471.56746  21760746.3844   21760753.6904   21760745.6994

  -9209883.44049  -4458766.01745  23736316.2724   23736323.3114   23736317.1404

 -17207448.26649  -3795111.00247  21261228.5284   21261235.3234   21261227.6984

 97  8 18  0  5 59.9990000  0  9G 1G14G25G29G 5G23G21G30G15
 -19137069.85649   3307426.95547  20959274.6954   20959281.5284   20959273.8274

  -5239005.88649  -3657069.77045  24218030.4274   24218038.2784   24218029.2974

 -22041852.79049  -5785104.91747  20963698.9524   20963705.2284   20963698.2244

 -15502231.55249  -4972259.12547  21801791.8294   21801798.0984   21801791.7244

  -3373359.20749    237453.77145  24709971.0784   24709979.8954   24709970.7034

   7109220.87749   8268379.31244  25161788.8584   25161797.2284   25161789.8054

 -13927217.59549   5394162.13346  21776300.3434   21776307.1604   21776299.4424

  -9241338.53949  -4483276.45845  23730330.6554   23730338.2134   23730330.7344

 -17218410.47849  -3803652.98247  21259142.5114   21259148.8284   21259141.5334

 97  8 18  0  6 29.9990000  0  9G 1G14G25G29G 5G23G21G30G15
 -19084608.16649   3348306.18747  20969257.8084   20969264.7114   20969257.1254

  -5325447.86049  -3724427.12245  24201580.9654   24201588.5964   24201580.1954

 -22084996.49049  -5818723.36647  20955488.9664   20955495.2034   20955488.5574

 -15546937.27249  -5007094.72747  21793284.6314   21793290.9524   21793284.2734

  -3342234.25549    261706.93345  24715894.1024   24715902.0674   24715893.3134

   7212605.79649   8348939.02244  25181462.4324   25181472.6274   25181461.5574

 -13845162.93749   5458100.79646  21791914.8114   21791921.7204   21791913.7124

  -9272383.29749  -4507467.14745  23724422.9304   23724429.9234   23724423.2344

 -17228748.71549  -3811708.73947  21257175.2014   21257182.0104   21257174.1754

 97  8 18  0  6 59.9990000  0  9G 1G14G25G29G 5G23G21G30G15
 -19031913.26849   3389367.13947  20979285.3244   20979292.2724   20979284.4344

  -5411903.72949  -3791795.28945  24185128.7924   24185136.9804   24185127.6154

 -22127679.72649  -5851983.01047  20947366.6294   20947372.9254   20947365.7104

 -15591445.45249  -5041776.39847  21784814.9784   21784821.3804   21784814.3274

  -3310631.37749    286332.51745  24721907.9964   24721915.9934   24721907.2404

   7316132.80649   8429609.44944  25201162.8334   25201172.2714   25201160.6794

 -13762781.27449   5522294.25046  21807591.4784   21807598.4154   21807590.6694

  -9303017.14149  -4531337.64845  23718593.4894   23718601.0754   23718592.7204

 -17238458.33049  -3819274.66047  21255327.5404   21255334.3554   21255326.6144

 97  8 18  0  7 30.0000000  0  9G 1G14G25G29G 5G23G21G30G15
 -18978984.64649   3430610.22047  20989357.3194   20989364.2384   20989356.4114

  -5498346.20449  -3859153.01045  24168679.1554   24168687.6794   24168678.6024

 -22169899.57649  -5884881.57547  20939332.4344   20939338.4034   20939331.8424

 -15635755.88949  -5076303.98547  21776382.9284   21776389.5244   21776382.2744

  -3278530.53649    311346.11945  24728016.6064   24728024.4684   24728015.7214

   7419805.94049   8510393.68344  25220891.0774   25220898.1084   25220889.8414

 -13680038.21649   5586769.32446  21823336.9554   21823344.6274   21823336.3394

  -9333233.31749  -4554882.70245  23712843.4764   23712850.6734   23712843.1804

 -17247529.54049  -3826343.12547  21253601.3144   21253608.0524   21253600.0194

 97  8 18  0  8  0.0000000  0  9G 1G14G25G29G 5G23G21G30G15
 -18925857.76649   3472007.78047  20999467.0434   20999474.1004   20999466.1024

  -5584778.12449  -3926502.53345  24152231.6374   24152238.9734   24152231.0584

 -22211689.80849  -5917445.37747  20931380.0034   20931386.2634   20931379.3684

 -15679867.87049  -5110676.93747  21767988.6694   21767995.4794   21767988.2354

  -3245936.25449    336744.22445  24734219.0934   24734227.5314   24734217.9774

   7523587.61048   8591262.51444  25240640.2754   25240649.3224   25240639.3594

 -13596930.02249   5651528.89846  21839152.0394   21839159.0514   21839150.8404

  -9363040.49649  -4578109.05745  23707171.3394   23707178.6814   23707171.3474

 -17255973.81349  -3832923.07347  21251994.4224   21252001.2324   21251993.6114

 97  8 18  0  8 30.0000000  0  9G 1G14G25G29G 5G23G21G30G15
 -18872536.19649   3513557.04547  21009613.8054   21009620.4654   21009613.0884

  -5671200.73649  -3993844.79545  24135785.9654   24135791.8854   24135785.6734

 -22253057.85949  -5949680.20547  20923507.9014   20923514.3154   20923507.3274

 -15723780.67749  -5144894.69647  21759632.3764   21759639.3504   21759631.7004

  -3212840.13049    362533.38645  24740516.9714   24740525.6984   24740516.4974

   7627465.79258   8672206.49244  25260407.5644   25260417.9604   25260402.9674

 -13513444.58449   5716582.43846  21855038.8004   21855046.0884   21855037.4124

  -9392412.69349  -4600996.46545  23701582.0464   23701589.1454   23701581.7464

 -17263790.03349  -3839013.63347  21250507.0674   21250513.7644   21250505.9514

 97  8 18  0  9  0.0000000  0  9G 1G14G25G29G 5G23G21G30G15
 -18819007.38549   3555267.80747  21019799.9774   21019806.9214   21019799.2864

  -5757595.54649  -4061165.37845  24119345.5124   24119353.2814   24119345.2054

 -22293977.21649  -5981565.40047  20915721.1804   20915727.2864   20915720.5184

 -15767476.87249  -5178943.64947  21751317.2294   21751323.6534   21751316.5674

  -3179226.12249    388726.07045  24746913.6234   24746922.1344   24746912.7494

   7731449.22448   8753232.39844  25280194.4374   25280205.2484   25280195.2654

 -13429589.30749   5781924.17946  21870995.9674   21871002.4624   21870995.4854

  -9421308.05549  -4623512.30845  23696083.3764   23696091.5504   23696082.5634

 -17270965.02649  -3844604.53047  21249141.6904   21249148.8654   21249140.4264

 97  8 18  0  9 30.0000000  0  9G 1G14G25G29G 5G23G21G30G15
 -18765272.42149   3597139.20347  21030025.4134   21030032.1544   21030024.5774

  -5843954.15149  -4128457.77845  24102911.9044   24102919.0324   24102911.0324

 -22334431.07249  -6013087.86947  20908023.0334   20908029.1544   20908022.5074

 -15810963.32649  -5212829.17547  21743042.0104   21743048.7834   21743041.3664

  -3145092.00849    415324.05845  24753409.1044   24753417.7564   24753408.8024

   7835526.23648   8834331.28044  25299999.7724   25300007.7234   25300000.7544

 -13345377.72349   5847543.55646  21887020.9464   21887028.4634   21887020.1714

  -9449718.98349  -4645650.68045  23690676.9824   23690683.6684   23690677.1854

 -17277494.44249  -3849692.38447  21247899.1854   21247905.9674   21247897.9064

 97  8 18  0 10  0.0000000  0  9G 1G14G25G29G 5G23G21G30G15
 -18711342.36549   3639162.62347  21040288.0014   21040294.9254   21040287.1924

  -5930303.64449  -4195743.07245  24086480.2194   24086487.2344   24086480.1874

 -22374417.92849  -6044246.44447  20900413.7614   20900419.6424   20900413.0854

 -15854247.61449  -5246557.17347  21734805.2534   21734811.4364   21734804.5984

  -3110457.16249    442312.23245  24760000.0264   24760008.7884   24759998.9894

   7939693.33548   8915500.44544  25319822.4494   25319829.5774   25319817.9954

 -13260831.95749   5913423.32746  21903109.5434   21903116.6584   21903109.8234

  -9477647.99149  -4667413.54445  23685362.2744   23685369.3134   23685362.2254

 -17283387.44349  -3854284.33647  21246777.7924   21246784.6094   21246776.4134

 97  8 18  0 10 30.0000000  0  9G 1G14G25G29G 5G23G21G30G15
 -18657204.26449   3681348.15447  21050590.1154   21050596.9204   21050589.4404

  -6016632.42049  -4263012.22045  24070052.5784   24070060.0534   24070052.0704

 -22413905.15649  -6075015.69647  20892899.5764   20892905.6574   20892899.2374

 -15897326.01049  -5280124.73647  21726607.6934   21726614.4084   21726607.2534

  -3075316.20549    469694.77145  24766687.0644   24766695.3934   24766686.7004

   8043971.97549   8996756.49444  25339666.1104   25339676.4054   25339666.2044

 -13175957.79749   5979559.00546  21919260.6404   21919268.0284   21919259.5224

  -9505084.16949  -4688792.36645  23680141.3074   23680149.1384   23680141.0694

 -17288635.16749  -3858373.47147  21245779.1744   21245785.8454   21245777.9844

 97  8 18  0 11  0.0000000  0  9G 1G14G25G29G 5G23G21G30G15
 -18602892.40949   3723669.08347  21060925.3994   21060932.0674   21060924.4254

  -6102970.15649  -4330288.35445  24053623.2294   24053630.8894   24053622.9334

 -22452915.29749  -6105413.18947  20885476.2074   20885482.0944   20885475.7464

 -15940237.92249  -5313562.57047  21718441.8274   21718448.1634   21718441.0264

  -3039703.50449    497444.89345  24773464.0404   24773472.0934   24773462.4294

   8148339.28349   9078081.63545  25359526.5104   25359534.5904   25359524.9364

 -13090793.10449   6045921.07046  21935466.9564   21935473.4894   21935466.1534

  -9532073.63849  -4709823.09945  23675005.4134   23675013.5614   23675005.2654

 -17293270.36649  -3861985.31047  21244897.0914   21244904.0934   21244895.9654

 97  8 18  0 11 30.0000000  0  9G 1G14G25G29G 5G23G21G30G15
 -18548403.96049   3766127.61147  21071294.2284   21071300.7524   21071293.2274

  -6189299.69149  -4397558.11245  24037195.3724   24037203.1724   24037193.9774

 -22491436.52349  -6135429.71047  20878145.8264   20878151.8834   20878145.3714

 -15982965.60349  -5346856.85247  21710310.9734   21710317.3244   21710310.3254

  -3003605.79449    525572.96545  24780333.1314   24780342.3584   24780332.7134

   8252822.69149   9159497.25745  25379409.2454   25379417.3404   25379408.5214

 -13005310.49549   6112530.87746  21951733.8184   21951741.1774   21951733.4914

  -9558611.75849  -4730502.14745  23669955.4424   23669961.7774   23669955.3814

 -17297279.84249  -3865109.58147  21244134.0924   21244140.5294   21244132.9034

 97  8 18  0 12  0.0000000  0  9G 1G14G25G29G 5G23G21G30G15
 -18493712.88249   3808744.03447  21081701.5964   21081708.1014   21081700.7624

  -6275598.38449  -4464803.81945  24020773.3184   24020781.4654   24020772.5454

 -22529466.51349  -6165063.45347  20870908.9664   20870914.9034   20870908.1714

 -16025464.74849  -5379973.06347  21702223.6334   21702230.2484   21702223.0344

  -2966997.70649    554098.73045  24787299.5224   24787307.0724   24787298.3004

   8357463.04849   9241035.19745  25399321.7994   25399330.5344   25399321.1264

 -12919487.18849   6179406.17546  21968065.4704   21968072.9254   21968064.4754

  -9584676.98349  -4750812.71745  23664995.3764   23665002.8684   23664995.3754

 -17300644.35849  -3867731.28647  21243493.8964   21243500.6374   21243492.7864

 97  8 18  0 12 30.0000000  0  9G 1G14G25G29G 5G23G21G30G15
 -18438792.76749   3851538.92647  21092152.5334   21092159.2004   21092151.4974

  -6361845.23549  -4532009.11145  24004360.9964   24004369.2284   24004359.7184

 -22566999.99549  -6194310.30247  20863766.5264   20863772.8454   20863766.0954

 -16067724.70549  -5412902.87747  21694181.7814   21694188.3864   21694180.9514

  -2929854.03949    583041.81745  24794367.6954   24794375.8444   24794365.6084

   8462278.03549   9322709.20045  25419267.3734   25419276.3704   25419266.2284

 -12833311.23249   6246556.26946  21984464.2194   21984471.4694   21984463.0334

  -9610250.02149  -4770739.74045  23660128.9814   23660135.9534   23660128.9944

 -17303350.32749  -3869839.83247  21242978.9834   21242986.0724   21242978.0124

 97  8 18  0 13  0.0000000  0  9G 1G14G25G29G 5G23G21G30G15
 -18383663.73249   3894496.61847  21102643.2724   21102649.8934   21102642.6744

  -6448073.05049  -4599199.57545  23987952.3184   23987960.1134   23987951.2974

 -22604079.34149  -6223203.28447  20856710.5834   20856716.3504   20856709.9404

 -16109758.98549  -5445656.84947  21686182.8764   21686189.1994   21686182.6384

  -2892209.00949    612375.59745  24801531.1254   24801539.9984   24801530.5584

   8567236.15249   9404494.73545  25439240.2254   25439249.5584   25439239.2114

 -12746805.65349   6313963.19546  22000925.7164   22000933.5824   22000924.9074

  -9635357.37049  -4790303.89845  23655351.2374   23655358.5404   23655350.3324

 -17305426.96949  -3871457.99347  21242583.8134   21242590.5324   21242582.9164

 97  8 18  0 13 30.0000000  0  9G 1G14G25G29G 5G23G21G30G15
 -18328288.75049   3937645.95047  21113180.7864   21113187.3954   21113179.9604

  -6534258.32149  -4666356.89145  23971551.7554   23971560.2364   23971551.2104

 -22640686.73549  -6251728.51347  20849744.4454   20849750.6404   20849743.8134

 -16151528.91549  -5478204.83547  21678234.3284   21678240.5854   21678234.0614

  -2854030.69449    642124.90845  24808796.3304   24808804.6994   24808795.2184

   8672356.51049   9486406.69145  25459243.9724   25459252.4904   25459242.8934

 -12659943.57149   6381647.92046  22017455.0164   22017462.2574   22017454.5634

  -9659967.81649  -4809480.85045  23650668.0394   23650675.1594   23650667.6334

 -17306845.84849  -3872563.61847  21242313.8074   21242321.0594   21242312.6834

 97  8 18  0 14  0.0000000  0  9G 1G14G25G29G 5G23G21G30G15
 -18272709.02049   3980954.82847  21123757.2934   21123764.1224   21123756.4284

  -6620457.32649  -4733524.90145  23955148.6694   23955156.3174   23955148.4564

 -22676873.72749  -6279926.15047  20842858.2504   20842864.3464   20842857.7004

 -16193094.55649  -5510593.63247  21670324.6854   21670330.7834   21670324.0674

  -2815365.80049    672253.38445  24816154.0454   24816161.9914   24816153.1754

   8777568.20149   9568389.80645  25479265.0354   25479273.8074   25479264.1724

 -12572776.18949   6449570.53546  22034042.3764   22034049.3494   22034041.8104

  -9684118.88549  -4828299.86945  23646072.2654   23646079.2764   23646072.2054

 -17307650.04449  -3873190.26147  21242160.7424   21242167.6254   21242159.5494

 97  8 18  0 14 30.0000000  0  9G 1G14G25G29G 5G23G21G30G15
 -18216904.65349   4024438.74847  21134376.5104   21134382.9744   21134375.5264

  -6706624.39749  -4800668.02845  23938751.6124   23938759.3754   23938751.0974

 -22712583.79849  -6307752.16247  20836062.8884   20836069.1164   20836062.3644

 -16234449.71549  -5542818.41947  21662455.0724   21662461.3724   21662454.4254

  -2776182.31149    702785.95345  24823610.3504   24823618.7224   24823607.7244

   8882884.07549   9650454.09745  25499305.9304   25499314.6634   25499304.9984

 -12485263.41249   6517762.29146  22050695.5434   22050702.9664   22050694.5924

  -9707774.84949  -4846733.09045  23641570.6794   23641577.4164   23641570.0424

 -17307804.98649  -3873311.00047  21242131.2524   21242138.1864   21242130.0794

 97  8 18  0 15  0.0000000  0  9G 1G14G25G29G 5G23G21G30G15
 -18160882.58749   4068092.29747  21145037.1284   21145043.8334   21145036.4164

  -6792731.05249  -4867764.07145  23922365.9184   23922372.5494   23922364.4124

 -22747795.93049  -6335190.17147  20829362.2504   20829368.2794   20829361.7934

 -16275586.16849  -5574872.77847  21654627.0624   21654633.1724   21654626.3644

  -2736469.52449    733730.94445  24831167.5844   24831176.1044   24831166.6914

   8988311.58749   9732605.41345  25519368.1864   25519377.1504   25519368.5794

 -12397399.69049   6586227.50646  22067415.4684   22067423.0734   22067415.3964

  -9730928.61149  -4864774.97045  23637164.5534   23637171.5064   23637163.4524

 -17307294.79849  -3872913.44547  21242228.3584   21242234.9724   21242227.2124

 97  8 18  0 15 30.0000000  0  9G 1G14G25G29G 5G23G21G30G15
 -18104686.28149   4111881.62447  21155730.9444   21155737.7064   21155730.0134

  -6878798.29149  -4934829.42145  23905987.6464   23905994.9794   23905986.6904

 -22782543.99349  -6362266.56547  20822749.9294   20822756.0044   20822749.3914

 -16316555.36349  -5606796.80847  21646830.8744   21646837.2604   21646830.3514

  -2696258.97749    765063.83845  24838819.2954   24838827.5554   24838818.4444

   9093819.42749   9814819.25345  25539445.6754   25539454.3684   25539441.9624

 -12309213.83749   6654943.73646  22084196.6834   22084204.3714   22084195.8894

  -9753609.56149  -4882448.42045  23632848.5054   23632854.9764   23632847.6704

 -17306147.68949  -3872019.58947  21242446.6284   21242453.4374   21242445.6414

 97  8 18  0 16  0.0000000  0  9G 1G14G25G29G 5G23G21G30G15
 -18048317.31849   4155805.48747  21166457.6044   21166464.3584   21166456.8274

  -6964811.36449  -5001852.56545  23889619.8584   23889626.8204   23889619.5814

 -22816823.66949  -6388977.98547  20816226.6964   20816232.8294   20816225.9374

 -16357362.60049  -5638594.63647  21639065.5104   21639072.1054   21639064.8274

  -2655550.52849    796784.67945  24846565.8424   24846574.1344   24846563.8824

   9199423.01549   9897107.78145  25559541.3964   25559551.0004   25559541.2484

 -12220698.83749   6723916.44846  22101040.5954   22101048.2974   22101039.7294

  -9775808.38849  -4899746.19245  23628624.2664   23628631.4794   23628624.2244

 -17304359.18549  -3870625.94847  21242786.9434   21242793.9324   21242785.4264

 97  8 18  0 16 30.0000000  0  8G 1G14G25G29G 5G21G30G15
 -17991758.15449   4199877.56347  21177220.4694   21177227.1804   21177219.4964

  -7050748.10049  -5068816.22145  23873266.6804   23873273.9574   23873265.7524

 -22850620.07149  -6415312.82447  20809795.4214   20809801.3454   20809794.6394

 -16397982.77749  -5670246.70347  21631335.7384   21631342.3354   21631335.3984

  -2614334.75749    828900.82845  24854408.9014   24854418.2444   24854407.6224

 -12131835.42149   6793160.65346  22117950.7354   22117958.7904   22117949.4624

  -9797521.92849  -4916665.82945  23624492.3374   23624498.6524   23624491.4054

 -17301915.00649  -3868721.38947  21243252.0364   21243258.9904   21243250.7934

 97  8 18  0 17  0.0000000  0  8G 1G14G25G29G 5G21G30G15
 -17935007.48149   4244098.86247  21188019.7134   21188026.3574   21188018.7104

  -7136640.45649  -5135745.28445  23856921.8444   23856928.4834   23856921.2174

 -22883962.05949  -6441293.57947  20803450.6574   20803456.6204   20803449.8914

 -16438404.47449  -5701744.11547  21623643.7484   21623650.3124   21623643.2034

  -2572630.70549    861397.45345  24862344.8874   24862353.8904   24862343.6684

 -12042630.93449   6862670.62746  22134925.8684   22134933.5784   22134924.9704

  -9818751.73949  -4933208.53345  23620452.4074   23620459.2444   23620452.1214

 -17298820.45849  -3866310.05147  21243840.9184   21243847.5224   21243839.7064

 97  8 18  0 17 30.0000000  0  8G 1G14G25G29G 5G21G30G15
 -17878076.90149   4288460.34647  21198853.2374   21198859.9824   21198852.2204

  -7222532.14549  -5202673.82745  23840577.1364   23840584.1634   23840575.6334

 -22916869.14149  -6466935.44447  20797188.6034   20797194.6674   20797187.9764

 -16478640.46249  -5733096.81747  21615987.1094   21615993.8854   21615986.4744

  -2530460.00949    894257.70145  24870369.6694   24870378.2864   24870368.2124

 -11953107.99649   6932428.74046  22151961.5774   22151969.0174   22151960.9174

  -9839505.94249  -4949380.61945  23616502.9794   23616508.8644   23616502.1464

 -17295100.24849  -3863411.18847  21244548.8674   21244555.5664   21244547.7864

 97  8 18  0 18  0.0000000  0  8G 1G14G25G29G 5G21G30G15
 -17820908.68749   4333006.99447  21209731.9774   21209738.8664   21209731.0294

  -7308369.21149  -5269559.80845  23824242.7884   23824251.0484   23824241.5314

 -22949269.69249  -6492182.61547  20791022.9914   20791029.1124   20791022.5054

 -16518632.33049  -5764259.29447  21608376.9184   21608383.5574   21608376.6324

  -2487758.83449    927531.32345  24878495.2604   24878503.7534   24878494.0574

 -11863221.84849   7002469.87646  22169066.3774   22169073.6604   22169065.2754

  -9859722.92049  -4965134.10945  23612655.8154   23612663.1504   23612655.3294

 -17290700.34849  -3859982.69947  21245386.1624   21245393.2264   21245385.3464

 97  8 18  0 18 30.0000000  0  8G 1G14G25G29G 5G21G30G15
 -17763548.28249   4377703.40847  21220647.3004   21220653.9454   21220646.3224

  -7394196.87549  -5336438.47445  23807910.3174   23807917.3484   23807909.1674

 -22981190.69449  -6517056.10547  20784948.6484   20784954.5504   20784947.9904

 -16558411.07049  -5795255.69447  21600807.2534   21600814.0134   21600806.9334

  -2444567.13349    961187.16845  24886714.4594   24886723.5184   24886712.8674

 -11773019.84349   7072757.12846  22186231.2084   22186238.1714   22186230.0734

  -9879433.81349  -4980493.22745  23608904.9854   23608911.1574   23608905.3154

 -17285662.31349  -3856056.95947  21246344.8684   21246352.0694   21246343.7224

 97  8 18  0 19  0.0000000  0  8G 1G14G25G29G 5G21G30G15
 -17706027.07449   4422525.12047  21231593.2214   21231599.6624   21231592.2254

  -7480020.44649  -5403313.95145  23791578.5924   23791585.7684   23791577.2844

 -23012643.82849  -6541565.02947  20778963.2844   20778969.0214   20778962.5744

 -16597994.65149  -5826100.02947  21593274.7134   21593281.2294   21593273.9874

  -2400897.21949    995215.64845  24895024.6064   24895033.8784   24895025.0634

 -11682530.98349   7143267.91646  22203450.6694   22203458.0774   22203450.1514

  -9898648.74449  -4995465.88745  23605248.4954   23605255.4084   23605247.3974

 -17280006.73649  -3851650.01847  21247421.0714   21247428.1694   21247419.7374

 97  8 18  0 19 30.0000000  0  8G 1G14G25G29G 5G21G30G15
 -17648291.58649   4467513.79747  21242579.9124   21242586.7384   21242579.1084

  -7565764.34249  -5470127.33945  23775261.9934   23775269.6534   23775261.7394

 -23043567.28649  -6565661.22147  20773078.7364   20773084.6794   20773078.1874

 -16637336.09749  -5856755.69347  21585788.2954   21585795.0824   21585787.8404

  -2356689.63749   1029663.08745  24903436.7674   24903446.9444   24903435.2904

 -11591704.30749   7214041.94546  22220734.3884   22220741.5484   22220733.6364

  -9917316.91349  -5010012.50445  23601696.0324   23601703.5834   23601695.6664

 -17273680.64449  -3846720.60447  21248624.9094   21248631.8864   21248624.0644

 97  8 18  0 20  0.0000000  0  8G 1G14G25G29G 5G21G30G15
 -17590359.68949   4512655.52647  21253604.0024   21253610.7904   21253603.3774

  -7651427.26649  -5536877.65145  23758960.8664   23758967.8964   23758959.5954

 -23073982.92749  -6589361.70547  20767290.7804   20767296.7564   20767290.2444

 -16676446.30949  -5887231.17047  21578345.9014   21578352.2774   21578345.3124

  -2311971.75949   1064508.16145  24911946.4174   24911955.0614   24911946.0094

 -11500540.96749   7285078.30946  22238082.2104   22238089.9554   22238081.6364

  -9935471.85049  -5024159.18045  23598241.2194   23598249.4734   23598240.5284

 -17266701.13949  -3841282.03547  21249953.0704   21249960.1964   21249952.0544

 97  8 18  0 20 30.0000000  0  8G 1G14G25G29G 5G21G30G15
 -17532247.83449   4557937.48047  21264662.3404   21264669.2564   21264661.4314

  -7737032.11649  -5603582.69445  23742670.8334   23742678.5984   23742669.9824

 -23103924.13149  -6612692.49947  20761593.1434   20761599.1244   20761592.5694

 -16715334.89549  -5917533.94847  21570945.6424   21570952.4764   21570945.3554

  -2266770.57449   1099729.84345  24920548.1364   24920556.2584   24920547.3844

 -11409058.76749   7356363.13946  22255490.6884   22255497.6364   22255489.1754

  -9953142.32249  -5037928.37145  23594878.5634   23594885.3804   23594878.2064

 -17259088.68149  -3835350.25347  21251401.6864   21251408.9374   21251400.3824

 97  8 18  0 21  0.0000000  0  8G 1G14G25G29G 5G21G30G15
 -17473938.93249   4603372.97647  21275758.1784   21275765.1424   21275757.5904

  -7822565.16449  -5670231.79245  23726394.4264   23726402.3064   23726393.5004

 -23133384.34449  -6635648.50247  20755987.0194   20755992.9214   20755986.3904

 -16753984.47649  -5947650.49947  21563590.8304   21563597.2794   21563590.2774

  -2221077.05049   1135335.16745  24929243.2964   24929251.7784   24929241.6354

 -11317237.84749   7427911.88446  22272963.5954   22272970.8294   22272962.2194

  -9970318.56049  -5051312.43645  23591609.9954   23591616.7784   23591609.2394

 -17250823.86749  -3828910.14747  21252974.4284   21252981.1114   21252973.5434

 97  8 18  0 21 30.0000000  0  8G 1G14G25G29G 5G21G30G15
 -17415418.73849   4648973.12347  21286894.2364   21286901.1414   21286893.2304

  -7908043.56249  -5736838.32245  23710128.4464   23710135.3684   23710127.3004

 -23162368.16849  -6658233.28547  20750471.5574   20750477.5704   20750470.8384

 -16792394.71049  -5977580.54447  21556281.5814   21556288.3124   21556281.1574

  -2174893.26449   1171322.51145  24938031.7754   24938040.8874   24938031.7004

 -11225071.17349   7499730.06546  22290502.3564   22290510.1284   22290501.8174

  -9986998.67749  -5064309.92345  23588435.7414   23588442.4324   23588435.3064

 -17241908.97149  -3821963.47947  21254670.8804   21254678.1184   21254669.7984

 97  8 18  0 22  0.0000000  0  8G 1G14G25G29G 5G21G30G15
 -17356704.83249   4694724.21747  21298067.1204   21298073.7194   21298066.1664

  -7993492.06749  -5803421.53245  23693867.9724   23693875.3344   23693866.8874

 -23190878.83749  -6680449.37247  20745046.1674   20745052.2744   20745045.7044

 -16830573.93249  -6007330.57147  21549016.3374   21549022.7784   21549015.9874

  -2128229.90649   1207683.53945  24946911.5384   24946921.2804   24946910.3534

 -11132585.59449   7571796.74346  22308101.8504   22308109.7744   22308099.8744

 -10003200.26949  -5076934.51845  23585352.7104   23585360.3914   23585352.6604

 -17232357.25449  -3814520.58147  21256488.5184   21256495.4404   21256487.4404

 97  8 18  0 22 30.0000000  0  8G 1G14G25G29G 5G21G30G15
 -17297800.52049   4740623.66947  21309276.2334   21309282.8594   21309275.2264

  -8078918.98449  -5869987.94645  23677611.6474   23677618.9394   23677612.0204

 -23218906.58949  -6702289.17547  20739712.6434   20739718.5844   20739712.0664

 -16868532.84949  -6036908.94747  21541793.0194   21541799.3864   21541792.5474

  -2081078.16449   1244425.15145  24955884.2784   24955893.2304   24955882.3924

 -11039793.62249   7644102.14146  22325759.5824   22325766.7914   22325758.3694

 -10018907.79449  -5089174.14845  23582363.6634   23582370.7124   23582363.4304

 -17222163.92149  -3806577.73547  21258428.2674   21258434.8434   21258427.3974

 97  8 18  0 23  0.0000000  0  8G 1G14G25G29G 5G21G30G15
 -17238713.32049   4786665.63947  21320520.1104   21320526.6784   21320519.4814

  -8164313.81149  -5936529.34745  23661361.5874   23661368.9564   23661361.1714

 -23246444.11249  -6723746.97447  20734472.4104   20734478.4324   20734472.0244

 -16906279.76749  -6066322.11747  21534610.0144   21534616.6184   21534609.3104

  -2033443.62549   1281542.92845  24964948.8684   24964956.9904   24964948.7764

 -10946695.96949   7716645.76046  22343475.4714   22343483.1594   22343474.7244

 -10034108.49449  -5101018.82945  23579471.0724   23579478.8324   23579470.4624

 -17211328.02549  -3798134.18047  21260490.2814   21260497.1224   21260488.9804

 97  8 18  0 23 30.0000000  0  8G 1G14G25G29G 5G21G30G15
 -17179432.79549   4832858.25247  21331800.8404   21331807.4194   21331799.8624

  -8249661.35049  -6003033.90045  23645120.5674   23645128.1404   23645119.8244

 -23273474.91549  -6744809.92547  20729328.6374   20729334.6244   20729328.1554

 -16943823.34749  -6095576.84647  21527465.6684   21527472.2974   21527465.1364

  -1985316.95649   1319044.23745  24974106.9914   24974115.1354   24974106.4164

 -10853286.42749   7789432.39646  22361250.7644   22361258.0514   22361250.0194

 -10048794.26049  -5112462.27845  23576676.4484   23576684.1104   23576676.0074

 -17199843.74049  -3789185.38647  21262675.6774   21262682.6274   21262674.4974

 97  8 18  0 24  0.0000000  0  8G 1G14G25G29G 5G21G30G15
 -17119974.60849   4879189.30647  21343115.3474   21343122.2774   21343114.5394

  -8334948.00849  -6069491.00545  23628891.0754   23628897.9554   23628890.8894

 -23300002.36049  -6765480.64747  20724280.6474   20724286.4624   20724279.8904

 -16981184.57349  -6124689.47247  21520355.9994   21520362.3924   21520355.4684

  -1936709.74949   1356919.97845  24983356.4844   24983365.4914   24983355.3434

 -10759568.41149   7862459.39746  22379084.7094   22379092.1804   22379083.1134

 -10062957.03649  -5123498.17345  23573981.3404   23573988.7884   23573981.3524

 -17187709.30649  -3779729.97947  21264984.8224   21264991.7064   21264983.5584

 97  8 18  0 24 30.0000000  0  8G 1G14G25G29G 5G21G30G15
 -17060336.71549   4925660.39247  21354464.0604   21354470.7124   21354463.0934

  -8420159.88849  -6135889.84645  23612675.7924   23612683.5954   23612675.0854

 -23326041.81349  -6785771.12047  20719325.4494   20719331.5694   20719324.8004

 -17018373.95949  -6153668.21247  21513279.0964   21513285.4104   21513278.5074

  -1887623.22749   1395169.19145  24992697.4994   24992705.4754   24992697.3864

 -10665519.71349   7935744.07646  22396981.5514   22396989.4414   22396980.8734

 -10076584.11649  -5134116.67645  23571388.1924   23571395.6564   23571387.7584

 -17174926.89749  -3769769.66947  21267417.1874   21267424.1024   21267416.1044

 97  8 18  0 25  0.0000000  0  8G 1G14G25G29G 5G21G30G15
 -17000522.84549   4972268.59847  21365846.2484   21365852.8354   21365845.5534

  -8505294.46349  -6202228.44745  23596475.2904   23596482.9854   23596474.1514

 -23351603.12849  -6805689.01947  20714461.3154   20714467.2734   20714460.8774

 -17055395.07649  -6182515.82547  21506234.2054   21506240.7954   21506233.7444

  -1838060.41849   1433789.55845  25002129.2514   25002137.9794   25002128.1074

 -10571142.82349   8009284.48046  22414940.8664   22414948.1574   22414940.2104

 -10089683.26949  -5144323.78646  23568895.5794   23568902.5934   23568895.1334

 -17161501.53049  -3759308.34847  21269971.9514   21269978.4604   21269970.9364

 97  8 18  0 25 30.0000000  0  8G 1G14G25G29G 5G21G30G15
 -16940506.03349   5019034.94647  21377267.0714   21377273.7164   21377266.4764

  -8590336.83449  -6268495.18845  23580292.2564   23580299.3534   23580291.8944

 -23376656.92349  -6825211.44547  20709693.7314   20709699.7904   20709693.1584

 -17092221.58749  -6211211.79247  21499226.3634   21499232.9694   21499225.7964

  -1787983.56749   1472810.46745  25011658.4814   25011666.7144   25011658.2394

 -10476410.03749   8083102.21946  22432967.9444   22432974.8034   22432966.5204

 -10102236.56049  -5154105.55345  23566506.7334   23566513.7614   23566505.7584

 -17147408.68749  -3748326.91147  21272653.7394   21272660.6054   21272652.9094

 97  8 18  0 26  0.0000000  0  8G 1G14G25G29G 5G21G30G15
 -16880361.83949   5065900.55147  21388712.1434   21388718.8994   21388711.3234

  -8675362.06449  -6334748.58945  23564112.4384   23564119.5544   23564111.2554

 -23401289.02249  -6844405.27647  20705006.4174   20705012.3904   20705005.7234

 -17128912.74049  -6239802.29047  21492244.2244   21492250.7574   21492243.9294

  -1737457.75249   1512181.22145  25021273.4424   25021282.2074   25021272.2844

 -10381388.08249   8157145.27946  22451050.1004   22451057.3304   22451048.6824

 -10114314.83549  -5163517.17646  23564208.2974   23564215.6744   23564206.8294

 -17132721.66949  -3736882.48547  21275448.6124   21275455.8984   21275447.1544

 97  8 18  0 26 30.0000000  0  8G 1G14G25G29G 5G21G30G15
 -16820022.56949   5112918.16347  21400194.3204   21400200.9234   21400193.3444

  -8760299.73549  -6400933.76046  23547949.2774   23547956.8634   23547948.6344

 -23425428.92249  -6863215.58347  20700412.7454   20700418.8534   20700412.0334

 -17165364.02549  -6268205.88147  21485307.7974   21485314.0984   21485307.6614

  -1686404.02049   1551963.33245  25030988.7434   25030996.5004   25030987.8684

 -10286009.47849   8231466.24646  22469200.0834   22469207.2724   22469198.9574

 -10125858.14649  -5172511.97745  23562011.6244   23562019.9134   23562011.8394

 -17117369.23449  -3724919.55547  21278370.0934   21278376.8064   21278369.0224

 97  8 18  0 27  0.0000000  0  8G 1G14G25G29G 5G21G30G15
 -16759483.57849   5160091.39947  21411714.5194   21411721.5394   21411713.6494

  -8845151.13949  -6467051.69045  23531802.6024   23531809.5384   23531801.3334

 -23449051.88349  -6881623.07247  20695917.4484   20695923.6514   20695917.1554

 -17201557.64349  -6296408.68547  21478420.3854   21478426.5994   21478419.8694

  -1634830.24549   1592150.68645  25040802.7704   25040811.9994   25040802.8334

 -10190287.79749   8306054.56546  22487415.3894   22487423.2494   22487414.5574

 -10136867.46449  -5181090.62846  23559916.5674   23559924.2444   23559916.4094

 -17101346.89549  -3712434.61847  21281419.0894   21281425.7824   21281418.1514

 97  8 18  0 27 30.0000000  0  8G 1G14G25G29G 5G21G30G15
 -16698774.52749   5207397.15047  21423267.1074   21423274.0234   21423266.4814

  -8929950.23649  -6533128.88246  23515665.8334   23515673.3544   23515664.7344

 -23472197.97049  -6899658.98047  20691512.8994   20691518.7924   20691512.2144

 -17237520.31149  -6324431.53247  21471576.9214   21471582.8974   21471576.2974

  -1582785.47049   1632705.05645  25050706.5194   25050716.1714   25050705.7574

 -10094257.87449   8380883.05046  22505689.3064   22505696.0234   22505689.0064

 -10147369.90849  -5189274.35246  23557918.0224   23557925.4814   23557917.3334

 -17084693.98349  -3699458.33147  21284588.0484   21284594.8444   21284587.0174

 97  8 18  0 28  0.0000000  0  8G 1G14G25G29G 5G21G30G15
 -16637888.59749   5254840.72247  21434853.3144   21434859.6654   21434852.4704

  -9014675.61449  -6599148.61246  23499543.0714   23499550.6794   23499542.5554

 -23494866.71949  -6917322.93547  20687199.1834   20687205.3284   20687198.6504

 -17273239.63349  -6352264.75947  21464779.7714   21464785.9734   21464779.1034

  -1530272.80949   1673624.02145  25060699.3554   25060708.1304   25060697.6604

  -9997923.21949   8455948.99546  22524021.2224   22524027.3114   22524020.8354

 -10157345.45149  -5197047.47946  23556019.6774   23556026.4544   23556019.3174

 -17067403.99249  -3685985.61547  21287878.2014   21287885.2254   21287876.9094

 97  8 18  0 28 30.0000000  0  8G 1G14G25G29G 5G21G30G15
 -16576832.70149   5302416.74147  21446471.8564   21446478.6424   21446470.6874

  -9099329.92149  -6665112.98346  23483433.8244   23483442.0654   23483433.0584

 -23517041.79549  -6934602.20147  20682979.3614   20682985.6524   20682978.6824

 -17308721.20149  -6379912.71647  21458027.8264   21458034.0564   21458027.4774

  -1477301.70949   1714900.20145  25070779.4644   25070787.0554   25070778.1214

  -9901313.27049   8531229.45646  22542405.5194   22542413.1884   22542404.2884

 -10166796.22349  -5204411.70946  23554221.1914   23554228.8644   23554220.8624

 -17049482.12449  -3672020.52647  21291288.6044   21291295.0564   21291287.3484

 97  8 18  0 29  0.0000000  0  8G 1G14G25G29G 5G21G30G15
 -16515568.03449   5350155.43347  21458130.0984   21458136.6454   21458129.2864

  -9183885.25949  -6731000.23046  23467343.4664   23467350.8594   23467342.9274

 -23538680.47049  -6951463.50147  20678861.6434   20678867.9134   20678861.0324

 -17343961.76149  -6407372.88147  21451321.7564   21451327.9934   21451321.1194

  -1423844.63949   1756555.06245  25080951.8614   25080959.2244   25080951.0694

  -9804398.96949   8606747.07446  22560847.6984   22560854.6154   22560847.2804

 -10175682.17749  -5211335.81146  23552530.4154   23552537.3914   23552529.9134

 -17030900.34749  -3657541.22747  21294824.6034   21294831.3754   21294823.7004

 97  8 18  0 29 30.0000000  0  8G 1G14G25G29G 5G21G30G15
 -16454100.46149   5398052.23147  21469826.9854   21469833.8334   21469826.0494

  -9268330.08449  -6796801.38046  23451274.1284   23451281.0604   23451273.5714

 -23559799.88849  -6967920.18547  20674842.7464   20674849.1044   20674842.2254

 -17378979.78049  -6434659.63647  21444658.0484   21444664.4614   21444657.3634

  -1369891.95249   1798596.12145  25091218.8354   25091226.6824   25091217.8214

  -9707177.98349   8682503.67646  22579348.2224   22579354.7484   22579347.0234

 -10183995.42649  -5217813.67646  23550948.4464   23550956.8474   23550948.3884

 -17011655.82549  -3642545.50847  21298486.7474   21298493.3394   21298485.5454

 97  8 18  0 30  0.0000000  0  8G 1G14G25G29G 5G21G30G15
 -16392479.82149   5446068.30747  21481552.9864   21481559.9464   21481552.1014

  -9352698.17649  -6862542.71746  23435219.4644   23435227.2094   23435218.8464

 -23580424.69849  -6983991.45147  20670917.9854   20670924.0324   20670917.2224

 -17413820.10849  -6461807.93347  21438028.1304   21438034.0174   21438027.8124

  -1315477.62649   1840996.89445  25101573.6544   25101581.9154   25101573.4624

  -9609692.39749   8758466.43646  22597899.0554   22597906.8834   22597897.8814

 -10191781.25149  -5223880.51946  23549466.8764   23549473.3334   23549466.7534

 -16991785.44449  -3627062.09647  21302267.9014   21302274.4604   21302266.4984

 97  8 18  0 30 30.0000000  0  8G 1G14G25G29G 5G21G30G15
 -16330684.66949   5494220.35747  21493312.2584   21493319.1764   21493311.5504

  -9436965.47849  -6928205.52946  23419183.9724   23419192.0874   23419183.3074

 -23600527.60749  -6999656.05547  20667092.5274   20667098.7294   20667092.1104

 -17448469.22849  -6488807.24847  21431434.6094   21431440.9314   21431434.3274

  -1260591.18049   1883765.55345  25112018.2194   25112026.2844   25112017.1224

  -9511903.56849   8834665.48346  22616507.6714   22616514.8484   22616506.4784

 -10199023.94849  -5229524.17446  23548088.7474   23548096.6924   23548087.7384

 -16971268.42849  -3611074.82647  21306172.1614   21306179.3274   21306171.3544

 97  8 18  0 31  0.0000000  0  8G 1G14G25G29G 5G21G30G15
 -16268713.20349   5542509.80047  21505105.0414   21505111.8294   21505104.1864

  -9521129.09249  -6993787.55646  23403168.2154   23403176.6034   23403167.3144

 -23620127.71949  -7014928.85447  20663362.7624   20663369.0184   20663362.3324

 -17482937.35449  -6515665.51047  21424875.5494   21424881.7694   21424874.9584

  -1205245.91249   1926891.73245  25122550.2614   25122558.0154   25122549.6414

  -9413791.43449   8911116.49846  22635177.8434   22635185.1354   22635177.1334

 -10205723.22249  -5234744.37246  23546813.7974   23546820.2284   23546813.8604

 -16950108.81249  -3594586.81247  21310198.7124   21310205.3524   21310197.6274

 97  8 18  0 31 30.0000000  0  8G 1G14G25G29G 5G21G30G15
 -16206549.64649   5590948.92647  21516934.4324   21516941.3464   21516933.3674

  -9605159.15549  -7059265.50146  23387177.7114   23387185.0954   23387176.9244

 -23639216.70149  -7029803.38347  20659730.2694   20659736.5774   20659729.6874

 -17517192.79949  -6542358.06147  21418356.9384   21418363.1344   21418356.4804

  -1149419.33449   1970392.96645  25133173.7424   25133180.5704   25133172.3974

  -9315336.62449   8987834.51446  22653913.1434   22653920.5934   22653912.6334

 -10211858.04749  -5239524.75146  23545646.4054   23545653.9464   23545646.4084

 -16928285.89549  -3577581.95047  21314351.4584   21314358.3294   21314350.2924

 97  8 18  0 32  0.0000000  0  8G 1G14G25G29G 5G21G30G15
 -16144213.99749   5639522.15047  21528796.4654   21528803.5424   21528795.7354

  -9689082.12749  -7124660.00146  23371207.6154   23371214.9034   23371206.7104

 -23657809.01249  -7044290.88847  20656192.2714   20656198.4324   20656191.7464

 -17551249.32849  -6568895.60447  21411876.1614   21411882.4794   21411876.2574

  -1093128.34649   2014256.06545  25143885.3724   25143892.6344   25143883.5324

  -9216559.91749   9064803.37146  22672709.8204   22672717.1894   22672709.4404

 -10217455.29749  -5243886.23546  23544581.3954   23544588.1534   23544581.2164

 -16905826.15949  -3560080.86547  21318625.4134   21318632.2924   21318624.2544

 97  8 18  0 32 30.0000000  0  8G 1G14G25G29G 5G21G30G15
 -16081718.88949   5688219.62047  21540688.9114   21540696.1504   21540688.4724

  -9772920.68849  -7189988.71846  23355253.6294   23355260.4844   23355252.5054

 -23675933.15549  -7058413.59347  20652743.3324   20652749.4104   20652742.6344

 -17585126.82249  -6595293.64647  21405429.5324   21405435.7414   21405428.9804

  -1036383.08649   2058473.19245  25154683.4604   25154691.7674   25154683.4954

  -9117476.04249   9142011.56946  22691564.9204   22691573.4244   22691564.1074

 -10222530.72749  -5247841.10946  23543615.4914   23543623.6724   23543615.4944

 -16882744.84849  -3542095.43547  21323017.6644   21323024.4514   21323016.6034

 97  8 18  0 33  0.0000000  0  8G 1G14G25G29G 5G21G30G15
 -16019053.43149   5737049.84447  21552613.7384   21552620.7524   21552612.5974

  -9856669.26149  -7255247.32446  23339316.8144   23339323.5364   23339315.6584

 -23693582.72649  -7072166.49647  20649384.7514   20649390.8284   20649384.2394

 -17618789.44749  -6621524.25147  21399023.7474   21399029.6204   21399023.1654

   -979157.87449   2103064.26045  25165573.2444   25165581.0444   25165573.0364

  -9018089.97049   9219455.22746  22710477.3464   22710484.1724   22710476.2444

 -10227065.08449  -5251374.35546  23542752.6314   23542759.1384   23542751.7624

 -16859024.88849  -3523612.35247  21327531.4514   21327538.7094   21327530.3084

 97  8 18  0 33 30.0000000  0  8G 1G14G25G29G 5G21G30G15
 -15956200.62349   5786026.04647  21564574.2354   21564581.4904   21564572.9974

  -9940310.03349  -7320421.93345  23323400.4984   23323407.5124   23323399.4374

 -23710727.11149  -7085525.75247  20646122.2594   20646128.3404   20646121.8674

 -17652210.63249  -6647566.72447  21392663.8954   21392670.8194   21392663.6974

   -921425.19249   2148050.74045  25176559.6674   25176566.8884   25176558.7814

  -8918380.29049   9297151.05046  22729451.5204   22729458.8354   22729450.4394

 -10231036.61249  -5254469.06246  23541996.8534   23542004.9184   23541996.3754

 -16834643.95949  -3504614.22747  21332171.0004   21332177.5234   21332169.9864

 97  8 18  0 34  0.0000000  0  8G 1G14G25G29G 5G21G30G15
 -15893192.79249   5835123.05147  21576564.2154   21576571.5354   21576563.5264

 -10023881.53949  -7385542.55346  23307497.3554   23307504.9774   23307496.6164

 -23727395.50949  -7098514.11047  20642950.3714   20642956.3934   20642949.8534

 -17685420.26249  -6673444.34947  21386344.3224   21386350.8144   21386343.9524

   -863228.17449   2193399.06145  25187634.0364   25187643.9514   25187632.9954

  -8818379.66749   9375073.56846  22748481.0784   22748487.6164   22748479.9154

 -10234476.34149  -5257149.37246  23541342.1984   23541349.2274   23541342.7684

 -16809635.44449  -3485127.07947  21336929.9614   21336937.0484   21336928.8024

 97  8 18  0 34 30.0000000  0  8G 1G14G25G29G 5G21G30G15
 -15830016.04249   5884351.67947  21588586.3614   21588593.3834   21588585.4134

 -10107373.93649  -7450601.53646  23291609.1584   23291615.5384   23291608.4554

 -23743575.64849  -7111122.00047  20639871.3734   20639877.3894   20639870.8954

 -17718392.59249  -6699137.06347  21380069.8774   21380076.0624   21380069.7164

   -804559.48249   2239114.91845  25198798.2614   25198807.5114   25198797.7454

  -8718078.87249   9453230.01046  22767567.6434   22767575.6484   22767566.1724

 -10237358.41449  -5259395.13746  23540793.7544   23540801.5444   23540793.9674

 -16783982.31649  -3465137.63847  21341811.5714   21341818.3404   21341810.4424

 97  8 18  0 35  0.0000000  0  8G 1G14G25G29G 5G21G30G15
 -15766687.00949   5933698.97047  21600637.4794   21600644.5134   21600636.5604

 -10190807.95349  -7515615.03346  23275732.2274   23275739.4294   23275731.9564

 -23759272.67149  -7123353.43947  20636884.3084   20636890.3194   20636883.7934

 -17751141.21249  -6724655.45347  21373838.0304   21373844.2294   21373837.6004

   -745439.98249   2285182.06745  25210048.2844   25210057.1994   25210047.0684

  -8617495.63849   9531606.53946  22786708.0204   22786715.6644   22786706.6014

 -10239701.14749  -5261220.65646  23540347.9824   23540355.0424   23540348.2064

 -16757704.31449  -3444661.27147  21346812.0954   21346818.8954   21346811.1604

 97  8 18  0 35 30.0000000  0  9G 1G14G22G25G29G 5G21G30G15
 -15703180.00749   5983184.93547  21612722.4344   21612729.3374   21612721.5544

 -10274145.24949  -7580553.16246  23259873.6024   23259880.7384   23259873.4454

    -83150.48549    -48212.03143

 -23774449.01949  -7135179.16247  20633996.3174   20634002.2744   20633995.8924

 -17783666.29249  -6749999.66247  21367648.6714   21367654.8004   21367648.2354

   -685846.11549   2331618.82545  25221388.8014   25221396.7854   25221388.3964

  -8516605.07049   9610222.51846  22805906.8254   22805914.6944   22805906.1504

 -10241486.75749  -5262612.03646  23540008.1274   23540016.1944   23540008.1814

 -16730781.63849  -3423682.57447  21351935.3224   21351942.4304   21351934.6734

 97  8 18  0 36  0.0000000  0  9G 1G14G22G25G29G 5G21G30G15
 -15639493.43449   6032810.82847  21624841.5854   21624848.1724   21624840.6044

 -10357391.08349  -7645420.02446  23244032.4004   23244039.7714   23244031.6624

   -174908.80849   -119712.57543

 -23789106.45749  -7146600.53847  20631207.1144   20631212.9784   20631206.4734

 -17815964.70249  -6775167.24047  21361502.5204   21361508.6444   21361502.0404

   -625781.28549   2378422.59145  25232819.0404   25232828.2384   25232818.4634

  -8415434.36949   9689056.82646  22825159.0384   22825166.8814   22825158.3724

 -10242723.59149  -5263575.79546  23539772.8184   23539780.1524   23539772.6944

 -16703219.01849  -3402205.21647  21357180.3094   21357187.4784   21357179.0334

 97  8 18  0 36 30.0000000  0  9G 1G14G22G25G29G 5G21G30G15
 -15575658.68749   6082552.18247  21636988.9604   21636995.7584   21636988.4654

 -10440580.26149  -7710242.72546  23228202.0084   23228209.7964   23228201.1214

   -266876.20249   -191375.80343

 -23803266.51249  -7157634.33947  20628512.5144   20628518.5384   20628511.8184

 -17848061.12249  -6800177.42847  21355394.7564   21355400.8914   21355394.3384

   -565277.89849   2425568.08345  25244332.3934   25244340.2174   25244331.3934

  -8314016.24449   9768083.92046  22844458.2264   22844466.3244   22844457.6614

 -10243448.94949  -5264141.02346  23539634.8444   23539643.3854   23539634.2204

 -16675046.48849  -3380252.60247  21362541.3474   21362548.4034   21362540.1614

 97  8 18  0 37  0.0000000  0  9G 1G14G22G25G29G 5G21G30G15
 -15511629.14949   6132445.31447  21649173.3744   21649180.5404   21649172.5404

 -10523654.31149  -7774975.71446  23212393.5304   23212401.5044   23212393.0654

   -358989.22049    -42510.54643

 -23816876.19449  -7168239.28347  20625922.6824   20625928.7404   20625922.1814

 -17879917.60749  -6825000.65947  21349332.6594   21349338.8934   21349332.1154

   -504295.67349   2473086.66945  25255936.9334   25255946.2764   25255935.1304

  -8212303.57149   9847340.51346  22863813.5514   22863821.5754   22863812.5624

 -10243623.03049  -5264276.66846  23539601.7024   23539608.1564   23539601.9334

 -16646221.01849  -3357791.21247  21368026.6314   21368033.2694   21368025.5244

 97  8 18  0 37 30.0000000  0  9G 1G14G22G25G29G 5G21G30G15
 -15447412.81349   6182484.00547  21661393.3394   21661400.3824   21661392.6204

 -10606600.01449  -7839608.71946  23196609.4384   23196617.1174   23196608.4524

   -451261.63749   -114410.60643

 -23829954.99049  -7178430.54547  20623433.8684   20623439.9214   20623433.4244

 -17911546.29849  -6849646.38247  21343313.8764   21343320.5274   21343313.4824

   -442853.04649   2520964.00745  25267629.0504   25267637.3734   25267627.3664

  -8110316.40849   9926811.01046  22883221.0054   22883229.0914   22883219.6874

 -10243240.19449  -5263978.34946  23539674.5514   23539681.5894   23539673.5534

 -16616755.16949  -3334830.82747  21373633.8084   21373640.5824   21373632.6624

 97  8 18  0 38  0.0000000  0  9G 1G14G22G25G29G 5G21G30G15
 -15383019.88749   6232660.30047  21673646.9484   21673653.8274   21673646.0674

 -10689442.46049  -7904161.24746  23180845.0744   23180851.6964   23180844.6754

   -543704.49149   -186444.00444  25495821.9854

 -23842526.98949  -7188226.90447  20621041.4984   20621047.4254   20621040.9304

 -17942954.31249  -6874120.15147  21337337.1014   21337343.4614   21337336.3694

   -380968.15349   2569185.98945  25279405.2854   25279412.6964   25279403.2734

  -8008052.65749  10006497.02546  22902681.2234   22902688.6674   22902680.3844

 -10242301.56549  -5263246.95746  23539853.2714   23539859.9634   23539853.3694

 -16586662.12549  -3311381.71247  21379360.3144   21379367.1884   21379359.2984

 97  8 18  0 38 30.0000000  0  9G 1G14G22G25G29G 5G21G30G15
 -15318485.51049   6282946.82147  21685927.4374   21685934.1954   21685926.4664

 -10772185.24449  -7968636.11146  23165099.6654   23165107.7384   23165098.8264

   -636337.96449   -258625.76545  25478186.5854   25478194.1664   25478184.6504

 -23854613.55649  -7197644.99947  20618741.4884   20618747.6004   20618740.9534

 -17974172.75849  -6898446.20447  21331396.4174   21331403.1544   21331396.2524

   -318670.94949   2617729.25045  25291259.9744   25291268.2684   25291258.7464

  -7905515.38649  10086396.17046  22922193.2704   22922201.3584   22922192.0474

 -10240822.70949  -5262094.59146  23540134.6024   23540141.8384   23540134.3944

 -16555966.29349  -3287462.89547  21385201.5664   21385208.6584   21385200.5144

 97  8 18  0 39  0.0000000  0  9G 1G14G22G25G29G 5G21G30G15
 -15253799.40749   6333351.56547  21698236.8144   21698243.4724   21698235.7944

 -10854791.69249  -8033004.73746  23149380.0814   23149387.1564   23149378.4594

   -729159.61849   -330954.18645  25460523.1014   25460531.4344   25460521.3584

 -23866211.27449  -7206682.17947  20616534.4994   20616540.5734   20616533.7914

 -18005211.07549  -6922631.90747  21325490.0064   21325496.4104   21325489.3514

   -255940.03848   2666610.44145  25303197.3214   25303204.7744   25303195.7024

  -7802679.42149  10166528.06446  22941762.2854   22941770.7614   22941761.4194

 -10238780.04649  -5260502.91546  23540523.3124   23540530.6914   23540522.7154

 -16524654.63449  -3263064.21747  21391159.9834   21391167.0284   21391159.1894

 97  8 18  0 39 30.0000000  0  9G 1G14G22G25G29G 5G21G30G15
 -15188947.08449   6383885.82047  21710577.8144   21710584.8914   21710577.4104

 -10937235.15149  -8097246.37746  23133691.5584   23133699.0084   23133691.0094

   -822154.03549   -403417.24045  25442826.5994   25442834.8744   25442824.8794

 -23877307.90549  -7215328.90947  20614422.8924   20614429.0514   20614422.1434

 -18036049.69349  -6946661.99747  21319621.5814   21319627.8884   21319621.2134

   -192765.04348   2715837.69345  25315219.0174   25315226.8774   25315217.5004

  -7699520.48249  10246911.63246  22961392.8924   22961400.6104   22961392.3394

 -10236153.36149  -5258456.15146  23541023.1944   23541030.7514   23541023.0994

 -16492706.19449  -3238169.34547  21397239.6054   21397246.3054   21397238.8904

 97  8 18  0 40  0.0000000  0  9G 1G14G22G25G29G 5G21G30G15
 -15123938.17149   6434542.11447  21722948.6114   21722955.1114   21722947.5664

 -11019526.85049  -8161369.75746  23118032.0344   23118039.0864   23118031.5304

   -915302.42048   -476000.24045  25425100.8384   25425109.0594   25425098.7504

 -23887906.33649  -7223587.41747  20612406.0824   20612412.0154   20612405.2294

 -18066689.14649  -6970536.88147  21313791.0924   21313797.2914   21313790.7604

   -129140.05148   2765415.58345  25327326.4364   25327332.8334   25327325.0384

  -7596021.35649  10327560.28445  22981088.1174   22981095.9314   22981087.1744

 -10232957.07649  -5255965.54646  23541631.4594   23541638.9354   23541631.1684

 -16460117.97449  -3212775.93047  21403440.9514   21403448.0504   21403440.1574

 97  8 18  0 40 30.0000000  0  9G 1G14G22G25G29G 5G21G30G15
 -15058757.25749   6485332.42047  21735352.1284   21735359.1614   21735350.9404

 -11101637.69549  -8225352.22246  23102406.8804   23102414.1574   23102405.7774

  -1008577.52648   -548681.98145  25407351.0914   25407360.0464   25407347.9794

 -23897990.44749  -7231445.16447  20610487.0924   20610493.2634   20610486.3474

 -18097105.58849  -6994238.00247  21308003.0364   21308009.6174   21308002.7574

    -65043.39248   2815361.00345  25339523.6584   25339531.7714   25339520.8954

  -7492184.82249  10408471.84945  23000847.6444   23000855.2554   23000846.3154

 -10229186.97649  -5253027.81446  23542348.9034   23542356.2934   23542348.6314

 -16426873.22149  -3186870.93647  21409767.2344   21409773.9354   21409766.1374

 97  8 18  0 41  0.0000000  0  9G 1G14G22G25G29G 5G21G30G15
 -14993417.61049   6536246.42347  21747785.8664   21747792.8224   21747785.0124

 -11183594.26749  -8289214.46046  23086811.0634   23086818.5274   23086810.3644

  -1101991.55148   -621471.93744  25389575.1304   25389583.4534   25389572.7154

 -23907597.99149  -7238931.55647  20608658.8354   20608664.9894   20608658.3034

 -18127313.99449  -7017777.01247  21302254.5654   21302261.1884   21302254.1764

      -492.77148   2865660.11144  25351807.3824   25351816.2724   25351804.8614

  -7388055.02649  10489611.91746  23020662.9844   23020671.4584   23020662.6574

 -10224867.45249  -5249661.96446  23543170.9104   23543178.0864   23543170.4524

 -16392996.73749  -3160473.67947  21416213.7214   21416221.1264   21416212.7844

 97  8 18  0 41 30.0000000  0  9G 1G14G22G25G29G 5G21G30G15
 -14927932.45849   6587273.80047  21760247.2964   21760254.1704   21760246.3654

 -11265434.53049  -8352986.07846  23071237.4234   23071244.0094   23071237.5554

  -1195549.98148   -694374.46144  25371771.3684   25371778.7034   25371769.1804

 -23916749.42049  -7246062.53847  20606917.3924   20606923.2814   20606916.5394

 -18157317.69949  -7041156.51747  21296545.1034   21296551.3544   21296544.6294

     64497.99548   2916302.24344  25364174.7754   25364182.9614   25364172.5894

  -7283666.15549  10570953.86845  23040527.4974   23040534.6954   23040526.1864

 -10220021.08549  -5245885.59046  23544093.1294   23544100.8054   23544092.5544

 -16358508.10549  -3133599.42247  21422776.6964   21422783.5854   21422775.8114

 97  8 18  0 42  0.0000000  0  9G 1G14G22G25G29G 5G21G30G15
 -14862280.02749   6638431.53147  21772740.5154   21772747.1604   21772739.5264

 -11347157.71949  -8416666.48046  23055686.0954   23055693.3834   23055684.9814

  -1289235.78848   -767376.21544  25353943.2564   25353951.9184   25353941.1824

 -23925416.21949  -7252815.88247  20605268.1144   20605274.2704   20605267.5004

 -18187093.09049  -7064358.11447  21290879.0474   21290885.0584   21290878.6714

    129967.30348   2967317.26045  25376632.8724   25376641.0214   25376630.4944

  -7179010.92549  10652503.38245  23060442.8074   23060449.8484   23060442.0284

 -10214615.63849  -5241673.55746  23545121.8154   23545128.6614   23545121.6214

 -16323387.61949  -3106232.81147  21429459.9724   21429466.7294   21429458.7244

 97  8 18  0 42 30.0000000  0  9G 1G14G22G25G29G 5G21G30G15
 -14796475.79949   6689707.54047  21785262.7164   21785269.7034   21785262.2474

 -11428777.89849  -8480266.58846  23040154.3044   23040161.3884   23040153.7534

  -1383078.60449   -840500.37444  25336085.4754   25336095.2044   25336084.7934

 -23933606.24149  -7259197.72147  20603709.6394   20603715.8164   20603709.1794

 -18216656.00249  -7087394.14647  21285253.4144   21285259.9474   21285253.3064

    195891.80248   3018686.97745  25389177.9784   25389185.2874   25389176.8394

  -7074120.45349  10734236.19245  23080402.8624   23080410.8474   23080401.2214

 -10208648.07849  -5237023.52846  23546257.4214   23546264.6434   23546257.6254

 -16287653.77449  -3078388.26547  21436259.8834   21436266.5974   21436258.9774

 97  8 18  0 43  0.0000000  0  9G 1G14G22G25G29G 5G21G30G15
 -14730525.15849   6741097.64247  21797812.7594   21797819.9844   21797811.9794

 -11510300.29949  -8543790.50846  23024641.0154   23024648.4404   23024640.0034

  -1477077.37449   -913746.07444  25318198.0414   25318207.3884   25318193.7794

 -23941315.13449  -7265204.64547  20602242.6544   20602248.9954   20602242.2054

 -18246011.76849  -7110268.75847  21279667.2074   21279673.7424   21279666.6734

    262271.93049   3070411.74545  25401809.8464   25401817.5644   25401808.8944

  -6968980.58449  10816163.32346  23100410.2594   23100417.6554   23100408.9504

 -10202097.40849  -5231919.11846  23547503.9194   23547511.4314   23547503.4434

 -16251302.60549  -3050062.68447  21443177.3074   21443184.1534   21443176.2384

 97  8 18  0 43 30.0000000  0  9G 1G14G22G25G29G 5G21G30G15
 -14664429.57849   6792600.68447  21810390.3144   21810397.2074   21810389.3824

 -11591739.15149  -8607249.33446  23009143.7004   23009150.9044   23009143.1924

  -1571235.32049   -987115.76544  25300280.1564   25300287.2384   25300277.3424

 -23948529.26149  -7270826.03747  20600869.8714   20600875.8384   20600869.0054

 -18275168.18749  -7132988.03047  21274118.9034   21274124.7114   21274118.3244

    329102.90149   3122487.83345  25414527.3604   25414536.1204   25414525.0704

  -6863581.83149  10898292.20946  23120467.0184   23120474.4304   23120466.0544

 -10194959.91549  -5226357.43746  23548862.2044   23548869.1324   23548861.3824

 -16214338.07249  -3021259.15147  21450211.4054   21450218.1304   21450209.9994

 97  8 18  0 44  0.0000000  0  9G 1G14G22G25G29G 5G21G30G15
 -14598168.73249   6844232.49747  21822999.3524   21823006.1184   21822998.4734

 -11673058.90749  -8670615.35346  22993669.0174   22993676.2194   22993668.9844

  -1665523.06849  -1060586.65344  25282337.5974   25282344.0274   25282333.4754

 -23955219.97649  -7276039.58547  20599596.6334   20599602.7834   20599596.1764

 -18304102.27049  -7155534.07147  21268612.8954   21268619.0874   21268612.3364

    396391.60249   3174920.56445  25427331.8324   25427341.0004   25427330.3754

  -6757904.80749  10980637.93645  23140576.6434   23140583.9634   23140575.8634

 -10187217.68349  -5220324.55046  23550335.5234   23550342.9294   23550334.4434

 -16176743.52449  -2991964.70947  21457365.3704   21457372.2224   21457364.0064

 97  8 18  0 44 30.0000000  0  9G 1G14G22G25G29G 5G21G30G15
 -14531742.16649   6895993.44347  21835639.9394   21835646.9274   21835638.9224

 -11754240.33849  -8733873.60446  22978220.6084   22978227.5834   22978220.4394

  -1759936.98249  -1134155.85644  25264371.2004   25264380.5564   25264368.5924

 -23961401.61549  -7280856.44647  20598420.3584   20598426.4714   20598419.7614

 -18332824.87049  -7177915.31647  21263147.1534   21263153.6004   21263146.8204

    464118.82649   3227695.02445  25440219.8784   25440228.3044   25440218.8734

  -6651961.36549  11063191.22345  23160736.9244   23160744.4164   23160736.0364

 -10178893.19549  -5213837.94846  23551919.5114   23551927.0694   23551919.5354

 -16138531.39049  -2962189.03147  21464636.8634   21464643.6204   21464635.4124

 97  8 18  0 45  0.0000000  0  9G 1G14G22G25G29G 5G21G30G15
 -14465144.22249   6947887.94347  21848313.0714   21848319.7744   21848312.0784

 -11835277.33649  -8797019.28446  22962799.7234   22962806.7774   22962799.3854

  -1854463.28149  -1207812.68544  25246383.3924   25246391.9134   25246383.1434

 -23967076.19649  -7285278.19647  20597340.5084   20597346.7144   20597340.0284

 -18361331.83849  -7200128.53347  21257722.4574   21257728.8584   21257721.9854

    532274.66949   3280803.45645  25453189.4194   25453198.0664   25453187.5054

  -6545754.38249  11145949.88146  23180947.4824   23180955.5574   23180946.4854

 -10170006.23849  -5206913.03746  23553610.6284   23553618.0944   23553610.0054

 -16099707.21349  -2931936.43847  21472024.8414   21472031.4204   21472023.7074

 97  8 18  0 45 30.0000000  0  9G 1G14G22G25G29G 5G21G30G15
 -14398350.64349   6999934.88047  21861023.4334   21861029.9854   21861022.4694

 -11916146.40749  -8860034.12546  22947410.8624   22947418.3854   22947409.7794

  -1949091.98449  -1281549.27444  25228376.0264   25228385.2704   25228373.2614

 -23972217.44349  -7289284.35647  20596362.1394   20596368.2584   20596361.7154

 -18389612.91049  -7222165.72347  21252340.7704   21252346.9544   21252340.2014

    600849.27149   3334238.17845  25466238.7234   25466247.9214   25466238.7904

  -6439281.43949  11228915.79345  23201208.6034   23201216.1384   23201208.1984

 -10160556.33649  -5199549.48746  23555408.8124   23555416.2424   23555408.5804

 -16060265.43049  -2901202.58847  21479530.3244   21479537.2794   21479529.3414

 97  8 18  0 46  0.0000000  0  9G 1G14G22G25G29G 5G21G30G15
 -14331365.06249   7052131.43347  21873770.3044   21873776.8294   21873769.2854

 -11996827.54549  -8922902.53246  22932057.7444   22932064.1664   22932056.1784

  -2043824.56449  -1355366.75944  25210348.9584   25210355.3044   25210348.2394

 -23976824.36349  -7292874.16247  20595485.5234   20595491.7424   20595485.0924

 -18417670.40049  -7244028.69947  21247001.5914   21247007.9934   21247000.8974

    669830.23049   3387989.56045  25479365.4664   25479373.9444   25479364.6034

  -6332540.86949  11312090.23545  23221520.6354   23221529.1994   23221520.0664

 -10150547.83449  -5191750.66146  23557313.3784   23557321.0554   23557312.9824

 -16020201.24849  -2869983.75247  21487154.2754   21487161.3774   21487152.9744

 97  8 18  0 46 30.0000000  0  9G 1G14G22G25G29G 5G21G30G15
 -14264205.76049   7104463.34947  21886550.2984   21886557.3354   21886549.5274

 -12077339.10449  -8985638.78746  22916736.9114   22916744.0034   22916736.0344

  -2138672.47149  -1429274.12045  25192300.0044   25192308.0104   25192297.1664

 -23980913.22049  -7296060.28247  20594707.4394   20594713.3714   20594706.8314

 -18445519.01049  -7265728.91247  21241702.1974   21241708.6174   21241701.7964

    739208.18649   3442050.28445  25492567.6774   25492574.9764   25492566.8334

  -6225533.17549  11395472.82445  23241883.5884   23241891.6144   23241882.6894

 -10139987.77849  -5183522.04746  23559322.8354   23559331.2344   23559322.8204

 -15979523.72849  -2838286.99647  21494894.9164   21494901.8744   21494893.9454

 97  8 18  0 47  0.0000000  0  9G 1G14G22G25G29G 5G21G30G15
 -14196895.21349   7156913.12347  21899359.1104   21899366.1754   21899358.4004

 -12157708.13649  -9048263.99846  22901443.2104   22901450.5104   22901441.9424

  -2233654.76349  -1503286.18845  25174225.4844   25174233.8804   25174223.8774

 -23984486.37349  -7298844.55347  20594027.4504   20594033.3764   20594026.8424

 -18473164.63349  -7287270.94547  21236441.4194   21236447.7354   21236440.8584

    808970.28949   3496410.35445  25505842.7844   25505850.8014   25505841.7334

  -6118252.08249  11479068.43745  23262298.4454   23262306.3584   23262297.2074

 -10128887.46549  -5174872.45646  23561435.1934   23561442.7674   23561434.7384

 -15938244.37949  -2806121.28647  21502750.2014   21502756.9334   21502749.1074

 97  8 18  0 47 30.0000000  0  9G 1G14G22G25G29G 5G21G30G15
 -14129441.09449   7209474.77547  21912195.1544   21912202.0204   21912193.9544

 -12237927.98349  -9110772.94846  22886177.8744   22886185.3794   22886177.1694

  -2328767.82549  -1577400.13745  25156125.9224   25156134.2824   25156124.5074

 -23987540.26549  -7301224.20547  20593446.3334   20593452.3714   20593445.6644

 -18500616.90149  -7308662.32147  21231217.4294   21231223.5494   21231217.1244

    879138.06649   3551086.52845  25519195.2384   25519204.0434   25519194.9694

  -6010687.95949  11562884.59145  23282767.1514   23282775.3754   23282766.2264

 -10117239.43049  -5165796.07146  23563651.6754   23563659.9404   23563651.4944

 -15896358.97549  -2773483.32347  21510720.7124   21510727.9704   21510719.3894

 97  8 18  0 48  0.0000000  0  9G 1G14G22G25G29G 5G21G30G15
 -14061849.97849   7262143.17347  21925057.3294   21925064.4634   21925056.4894

 -12317988.18249  -9173157.49046  22870942.9024   22870949.9854   22870942.8564

  -2423997.29049  -1651604.77845  25138004.2084   25138011.8114   25138001.6344

 -23990081.20349  -7303204.14847  20592962.7844   20592968.8434   20592962.1294

 -18527864.52649  -7329894.22247  21226032.3374   21226038.7524   21226031.5244

    949748.91049   3606107.94345  25532632.0084   25532642.4344   25532630.7384

  -5902826.18949  11646932.69045  23303292.6234   23303300.3094   23303292.2964

 -10105024.12749  -5156277.66246  23565976.2434   23565983.8834   23565976.1444

 -15853860.10449  -2740367.32947  21518807.9894   21518815.0434   21518806.5304

 97  8 18  0 48 30.0000000  0  9G 1G14G22G25G29G 5G21G30G15
 -13994128.82949   7314912.89347  21937944.2534   21937951.1214   21937943.5484

 -12397903.53949  -9235429.18346  22855735.4874   22855742.3134   22855734.3844

  -2519343.02549  -1725900.04745  25119860.2094   25119868.3734   25119858.0444

 -23992128.99749  -7304799.83547  20592573.1034   20592579.4044   20592572.7294

 -18554903.18049  -7350963.29947  21220887.0604   21220893.3284   21220886.1264

   1020801.10149   3661473.29245  25546152.7124   25546161.0854   25546152.5474

  -5794684.84049  11731198.64645  23323871.3834   23323879.6794   23323870.7104

 -10092239.74149  -5146315.81246  23568409.1224   23568416.2494   23568409.4704

 -15810762.66549  -2706784.93547  21527009.1624   21527016.1234   21527008.0424

 97  8 18  0 49  0.0000000  0  9G 1G14G22G25G29G 5G21G30G15
 -13926242.71649   7367811.16547  21950862.5564   21950869.6474   21950861.6354

 -12477637.85549  -9297559.79246  22840562.5454   22840570.3214   22840561.7084

  -2614779.24349  -1800265.81845  25101699.0194   25101708.0024   25101697.5464

 -23993661.81149  -7305994.23047  20592281.4534   20592287.8784   20592280.9414

 -18581704.60349  -7371847.51847  21215786.9014   21215793.1544   21215786.2974

   1092311.69949   3717195.83145  25559760.9454   25559767.8784   25559759.6474

  -5686254.30049  11815689.93545  23344505.0034   23344513.1184   23344504.7064

 -10078856.29049  -5135887.17046  23570955.9254   23570963.7114   23570954.9174

 -15767043.07449  -2672717.73647  21535328.7414   21535335.8924   21535327.5534

 97  8 18  0 49 30.0000000  0  9G 1G14G22G25G29G 5G21G30G15
 -13858225.09849   7420811.90447  21963805.9314   21963812.7894   21963805.4144

 -12557230.42249  -9359579.95246  22825416.5104   22825424.0704   22825415.3244

  -2710337.48549  -1874726.64945  25083514.6184   25083523.9884   25083513.4554

 -23994732.90549  -7306828.84247  20592077.5844   20592083.7234   20592077.1124

 -18608316.06949  -7392583.71647  21210722.9194   21210729.2384   21210722.3224

   1164238.35349   3773242.60144  25573448.1954   25573459.4564   25573445.5924

  -5577598.16349  11900357.02345  23365181.7044   23365189.3624   23365180.9124

 -10064900.93749  -5125012.86646  23573611.5074   23573618.8474   23573611.0794

 -15722745.97149  -2638200.52747  21543758.2094   21543765.0944   21543757.0274

 97  8 18  0 50  0.0000000  0  9G 1G14G22G25G29G 5G21G30G15
 -13790029.97849   7473950.96347  21976783.0894   21976790.2514   21976782.0804

 -12636648.47049  -9421464.12246  22810303.7894   22810311.5134   22810302.8464

  -2805966.14748  -1949242.36845  25065317.1464   25065325.9054   25065315.0044

 -23995313.89549  -7307281.56147  20591967.0154   20591973.1984   20591966.4884

 -18634669.31149  -7413118.70347  21205708.0364   21205714.4144   21205707.5744

   1236603.07649   3829630.71744  25587218.9314   25587228.4294   25587217.5184

  -5468682.87549  11985226.05345  23385907.7304   23385915.4104   23385906.8244

 -10050329.19949  -5113658.25846  23576384.4554   23576391.0154   23576384.3094

 -15677830.53649  -2603201.49947  21552305.3684   21552312.7054   21552303.9604

 97  8 18  0 50 30.0000000  0  9G 1G14G22G25G29G 5G21G30G15
 -13721659.45149   7527226.69447  21989793.5704   21989800.7204   21989792.6534

 -12715903.33349  -9483221.13146  22795222.0624   22795229.4554   22795221.1574

  -2901664.86449  -2023812.66345  25047106.3404   25047114.2764   25047104.1714

 -23995411.23849  -7307357.41047  20591948.5354   20591954.9364   20591947.9914

 -18660772.92849  -7433459.18247  21200740.7154   21200746.9114   21200740.0134

   1309377.38449   3886338.01144  25601067.4254   25601072.1274   25601064.4224

  -5359524.68549  12070284.34445  23406679.8614   23406687.6584   23406679.0834

 -10035164.00649  -5101841.22746  23579270.3004   23579277.2564   23579269.9014

 -15632305.02949  -2567727.09847  21560968.5834   21560975.4084   21560967.7534

 97  8 18  0 51  0.0000000  0  9G 1G14G22G25G29G 5G21G30G15
 -13653143.37549   7580615.84347  22002831.7454   22002838.4564   22002830.8374

 -12795014.10049  -9544865.86146  22780167.7314   22780175.3224   22780166.9594

  -2997465.53349  -2098462.39845  25028876.0384   25028883.5434   25028874.8704

 -23995039.58549  -7307067.80747  20592019.2714   20592025.2984   20592018.7124

 -18686665.06549  -7453634.86247  21195813.6114   21195819.9054   21195813.1644

   1382539.13149   3943347.19944  25614989.7644   25614997.0894   25614989.9614

  -5250144.05749  12155515.99245  23427494.3754   23427501.6734   23427493.4644

 -10019441.54449  -5089589.96846  23582262.2464   23582269.5194   23582262.2504

 -15586196.66149  -2531798.52047  21569742.7574   21569749.8284   21569741.3894

 97  8 18  0 51 30.0000000  0  9G 1G14G22G25G29G 5G21G30G15
 -13584482.21149   7634118.04747  22015897.4644   22015904.7514   22015896.2724

 -12873965.90549  -9606386.71346  22765143.6914   22765150.6024   22765143.3994

  -3093357.51249  -2173183.28445  25010628.4054   25010636.4664   25010626.9534

 -23994181.17249  -7306398.90747  20592182.6224   20592188.7744   20592182.1894

 -18712333.76849  -7473636.44247  21190928.9954   21190935.4154   21190928.3464

   1456109.09449   4000674.48944  25628989.5434   25629000.1274   25628985.6224

  -5140520.51549  12240936.93645  23448355.1574   23448361.5344   23448354.9124

 -10003156.03649  -5076899.95846  23585361.2844   23585369.1574   23585360.5754

 -15539498.19549  -2495410.11547  21578629.1704   21578636.5054   21578628.3764

 97  8 18  0 52  0.0000000  0  9G 1G14G22G25G29G 5G21G30G15
 -13515691.27849   7687721.36747  22028987.9114   22028995.1754   22028986.9804

 -12952758.50749  -9667783.52746  22750150.0104   22750157.2804   22750149.7294

  -3189351.51349  -2247983.71445  24992361.1724   24992369.7234   24992361.1984

 -23992831.11849  -7305346.91447  20592439.5394   20592445.6194   20592438.9014

 -18737775.91649  -7493461.48847  21186087.4754   21186093.8084   21186086.6674

   1530076.99949   4058311.82844  25643064.9894   25643071.3214   25643063.5764

  -5030652.69049  12326548.19645  23469262.3004   23469270.1444   23469262.0184

  -9986322.95649  -5063783.26746  23588564.5124   23588571.7314   23588564.1874

 -15492214.79949  -2458565.92747  21587626.9484   21587634.2614   21587625.6284

 97  8 18  0 52 30.0000000  0  9G 1G14G22G25G29G 5G21G30G15
 -13446732.41649   7741455.53647  22042110.3754   22042116.8054   22042109.5554

 -13031355.14649  -9729027.64646  22735193.5654   22735200.6794   22735193.3234

  -3285433.15449  -2322852.45145  24974077.5694   24974086.5204   24974075.1484

 -23990941.17849  -7303874.23047  20592799.1294   20592805.5684   20592798.6224

 -18762975.02549  -7513097.15347  21181292.2204   21181298.7094   21181291.7274

   1604480.35349   4116288.45044  25657223.3004   25657234.6174   25657220.3764

  -4920515.93449  12412369.02045  23490220.5664   23490228.7054   23490219.9694

  -9968904.66249  -5050210.56746  23591879.0404   23591886.0244   23591878.9624

 -15444316.11649  -2421242.28647  21596741.7704   21596749.0044   21596740.4284

 97  8 18  0 53  0.0000000  0  9G 1G14G22G25G29G 5G21G30G15
 -13377661.04249   7795277.38347  22055254.2214   22055261.1534   22055253.2664

 -13109804.29549  -9790156.83246  22720265.1884   22720272.4954   22720264.6484

  -3381650.99849  -2397827.33045  24955767.9384   24955775.6404   24955766.8524

 -23988564.69049  -7302022.41547  20593251.3774   20593257.6804   20593250.7994

 -18787976.36449  -7532578.70847  21176534.6194   21176540.9914   21176533.9614

   1679270.02548   4174566.08944  25671455.4184   25671463.3164   25671455.8114

  -4810162.45549  12498358.73045  23511220.2194   23511228.3264   23511219.3524

  -9950940.69249  -5036212.66046  23595297.5104   23595304.8994   23595297.8254

 -15395852.84949  -2383478.71647  21605964.0304   21605971.3534   21605962.8834

 97  8 18  0 53 30.0000000  0  9G 1G14G22G25G29G 5G21G30G15
 -13308453.07549   7849205.66646  22068424.0434   22068431.0064   22068423.0594

 -13188085.00249  -9851154.75346  22705368.8594   22705375.6624   22705368.6504

  -3477973.57349  -2472883.83145  24937438.2214   24937446.3724   24937436.5524

 -23985686.08049  -7299779.33847  20593799.1744   20593805.3854   20593798.5504

 -18812753.10649  -7551885.26047  21171819.7404   21171826.0794   21171819.0354

   1754466.62848   4233160.80844  25685765.0084   25685773.8414   25685764.6354

  -4699575.25349  12584530.55645  23532264.2984   23532272.5294   23532263.1934

  -9932392.06249  -5021759.18246  23598827.2404   23598834.3704   23598826.6224

 -15346798.37849  -2345254.46447  21615298.7574   21615305.7964   21615297.8514

 97  8 18  0 54  0.0000000  0  9G 1G14G22G25G29G 5G21G30G15
 -13239091.36349   7903253.74146  22081623.1274   22081630.2714   22081622.3214

 -13266182.52349  -9912009.95446  22690507.3864   22690513.9434   22690506.3494

  -3574382.99449  -2548008.00045  24919092.0854   24919100.2004   24919089.8834

 -23982307.87149  -7297146.96847  20594442.0394   20594448.0804   20594441.4554

 -18837311.16949  -7571021.41847  21167146.4814   21167152.7084   21167146.0204

   1830070.09048   4292072.56444  25700151.3964   25700157.6314   25700155.6324

  -4588747.26449  12670889.96945  23553354.0874   23553362.8234   23553352.6634

  -9913241.43649  -5006836.62146  23602471.4314   23602479.2174   23602470.8694

 -15297142.70149  -2306561.74747  21624747.9384   21624754.9764   21624747.0094

 97  8 18  0 54 30.0000000  0  9G 1G14G22G25G29G 5G21G30G15
 -13169603.98949   7957399.73546  22094846.1204   22094853.2024   22094845.6874

 -13344111.30249  -9972733.65646  22675677.9434   22675685.1944   22675676.9364

  -3670892.65549  -2623210.28545  24900726.8774   24900734.6054   24900726.1864

 -23978470.32749  -7294156.67147  20595172.2804   20595178.4164   20595171.6594

 -18861703.09549  -7590028.11547  21162504.8994   21162511.0054   21162504.3034

   1906050.21148   4351277.82344  25714610.0774   25714618.2514   25714608.4474

  -4477704.90649  12757416.43645  23574484.6964   23574492.0874   23574483.2054

  -9893516.31649  -4991466.39646  23606224.9924   23606232.4404   23606224.8414

 -15246918.84249  -2267426.28147  21634305.2784   21634312.4084   21634304.4834

 97  8 18  0 55  0.0000000  0  9G 1G14G22G25G29G 5G21G30G15
 -13099965.06449   8011663.82146  22108097.9894   22108104.8814   22108097.0834

 -13421825.44149 -10033290.10646  22660889.4604   22660896.7444   22660888.2044

  -3767440.43349  -2698442.27545  24882354.3774   24882361.4434   24882352.8364

 -23974140.94549  -7290783.12247  20595996.1434   20596002.4164   20595995.6694

 -18885898.47649  -7608881.65747  21157900.6594   21157906.8134   21157900.2404

   1982439.11348   4410801.61544  25729146.2954   25729155.6124   25729144.5444

  -4366397.97849  12844149.07845  23595665.6714   23595673.4444   23595665.8204

  -9873193.75549  -4975630.63546  23610092.1614   23610099.5334   23610091.9534

 -15196095.69849  -2227823.84247  21643976.6574   21643983.3984   21643975.5184

 97  8 18  0 55 30.0000000  0  9G 1G14G22G25G29G 5G21G30G15
 -13030187.33749   8066036.07146  22121376.2214   22121383.5764   22121375.3114

 -13499335.05449 -10093687.18446  22646139.8504   22646146.6574   22646139.3444

  -3864030.97949  -2773707.60945  24863973.6694   24863981.9674   24863972.0804

 -23969344.88049  -7287045.92747  20596908.8054   20596914.9194   20596908.2674

 -18909926.61949  -7627604.88347  21153328.2804   21153334.4754   21153327.8364

   2059211.85548   4470624.46744  25743755.4334   25743761.7044   25743755.4394

  -4254841.16449  12931076.45245  23616894.2994   23616901.9824   23616893.9154

  -9852305.60749  -4959354.15646  23614066.9754   23614074.9094   23614066.2124

 -15144701.91449  -2187776.75347  21653756.5594   21653763.6234   21653755.2874

 97  8 18  0 56  0.0000000  0  9G 1G14G22G25G29G 5G21G30G15
 -12960253.20949   8120530.18547  22134684.2744   22134691.3524   22134683.2784

 -13576623.81749 -10153912.18246  22631432.3254   22631439.8024   22631431.4664

  -3960640.41149  -2848987.64645  24845589.4174   24845596.7214   24845588.2074

 -23964058.39149  -7282926.58047  20597914.7324   20597920.8894   20597914.0714

 -18933766.26049  -7646181.23247  21148791.7814   21148797.9324   21148791.3764

   2136375.30448   4530751.80144  25758439.1854   25758446.3444   25758439.5734

  -4143013.85149  13018214.58245  23638174.4724   23638181.7454   23638173.3634

  -9830853.22249  -4942638.00846  23618149.1964   23618157.3354   23618149.3554

 -15092729.39949  -2147278.70547  21663646.5874   21663653.9544   21663645.8904

 97  8 18  0 56 30.0000000  0  9G 1G14G22G25G29G 5G21G30G15
 -12890128.63149   8175172.69647  22148028.5994   22148035.2744   22148027.8194

 -13653672.97749 -10213950.47046  22616770.3724   22616777.4044   22616769.3064

  -4057228.71449  -2924251.19745  24827209.3204   24827216.4694   24827207.9924

 -23958233.68349  -7278387.84547  20599023.1504   20599029.2774   20599022.6134

 -18957361.60149  -7664567.21247  21144301.7644   21144307.6834   21144301.3254

   2213975.05048   4591219.12644  25773205.8034   25773215.7064   25773204.2624

  -4030877.76349  13105593.29545  23659513.2414   23659520.5454   23659512.5004

  -9808809.44849  -4925461.04946  23622343.9664   23622352.0554   23622344.7714

 -15040143.59049  -2106302.76647  21673653.3594   21673660.4334   21673652.3634

 97  8 18  0 57  0.0000000  0  9G 1G14G22G25G29G 5G21G30G15
 -12819874.43749   8229916.21547  22161397.6074   22161404.8874   22161396.4054

 -13730571.33649 -10273871.26246  22602137.1104   22602144.1124   22602136.2574

  -4153871.64449  -2999557.31245  24808818.7294   24808826.7534   24808817.0134

 -23951943.10349  -7273486.09347  20600220.1914   20600226.3474   20600219.6254

 -18980762.07749  -7682801.34847  21139848.7724   21139854.6254   21139848.4174

   2291937.24948   4651968.86244  25788041.4014   25788052.6564   25788041.1414

  -3918503.66949  13193157.48945  23680897.2494   23680904.6534   23680897.5064

  -9786235.15949  -4907870.69446  23626639.7664   23626647.4914   23626639.6284

 -14987013.65549  -2064902.83047  21683763.6844   21683770.5004   21683762.8334

 97  8 18  0 57 30.0000000  0  9G 1G14G22G25G29G 5G21G30G15
 -12749447.54149   8284794.30446  22174799.4084   22174806.8684   22174798.3574

 -13807284.96049 -10333648.09746  22587538.9494   22587545.3694   22587537.9234

  -4250559.86249  -3074898.74545  24790419.5564   24790426.4444   24790417.7914

 -23945149.69549  -7268192.52347  20601512.9204   20601519.1324   20601512.1204

 -19003923.00149  -7700848.81447  21135441.4384   21135447.6074   21135440.9894

   2370300.98649   4713031.47044  25802953.5034   25802964.6814   25802954.5864

  -3805863.82949  13280928.77645  23702332.0514   23702339.8464   23702331.3474

  -9763074.91849  -4889823.75646  23631046.9874   23631054.6084   23631046.3074

 -14933300.72449  -2023048.61647  21693984.9314   21693991.5304   21693983.8674

 97  8 18  0 58  0.0000000  0  9G 1G14G22G25G29G 5G21G30G15
 -12678858.83849   8339798.47246  22188232.0134   22188239.0894   22188230.9474

 -13883827.42549 -10393291.55446  22572973.3804   22572980.5364   22572972.2964

  -4347326.46049  -3150301.21745  24772005.3634   24772013.2894   24772004.2084

 -23937850.73549  -7262505.02547  20602901.8634   20602908.0004   20602901.5084

 -19026841.66149  -7718707.51147  21131080.0974   21131086.5914   21131079.4884

   2449065.60849   4774406.48045  25817942.1264   25817950.8444   25817941.5114

  -3692970.53049  13368897.56845  23723815.0874   23723822.5074   23723814.6854

  -9739325.92949  -4871318.05146  23635566.2104   23635574.1664   23635566.4284

 -14879003.27949  -1980738.94647  21704317.4414   21704324.5454   21704316.3644

 97  8 18  0 58 30.0000000  0  9G 1G14G22G25G29G 5G21G30G15
 -12608126.87149   8394914.28346  22201691.8674   22201698.9334   22201690.6394

 -13960204.07749 -10452805.81946  22558439.3494   22558446.3654   22558438.4484

  -4444190.24749  -3225779.42645  24753572.7524   24753580.1904   24753571.2894

 -23930073.01349  -7256444.46147  20604381.9354   20604388.0974   20604381.4644

 -19049540.90549  -7736395.23347  21126760.5454   21126766.8514   21126760.0784

   2528220.72548   4836085.80145  25833004.8124   25833014.4904   25833003.7144

  -3579853.05349  13457041.01645  23745340.5974   23745348.1964   23745340.2334

  -9714998.54249  -4852361.64846  23640195.5694   23640203.5674   23640195.6134

 -14824134.05049  -1937983.72247  21714758.6774   21714765.7234   21714757.8964

 97  8 18  0 59  0.0000000  0  9G 1G14G22G25G29G 5G21G30G15
 -12537270.33349   8450127.15346  22215175.4424   22215182.4284   22215174.5254

 -14036411.04149 -10512187.85546  22543937.6144   22543944.9974   22543937.0674

  -4541175.71449  -3301352.40845  24735116.8074   24735124.1334   24735115.7364

 -23921833.54949  -7250024.09947  20605949.8414   20605956.0874   20605949.4084

 -19072044.24349  -7753930.30047  21122478.3474   21122484.7164   21122477.7834

   2607737.68849   4898047.04245  25848136.4184   25848145.9764   25848135.8284

  -3466545.01249  13545332.98345  23766902.3674   23766910.3654   23766901.3074

  -9690105.63949  -4832964.57946  23644932.5024   23644940.0954   23644931.6444

 -14768712.74549  -1894798.31047  21725305.0184   21725311.9934   21725304.0254

 97  8 18  0 59 30.0000000  0  9G 1G14G22G25G29G 5G21G30G15
 -12466279.91449   8505444.35046  22228684.4544   22228691.1994   22228683.2934

 -14112419.03349 -10571414.84146  22529473.7404   22529480.5854   22529472.6814

  -4638265.19049  -3377006.44445  24716641.3644   24716648.9784   24716640.0664

 -23913102.04449  -7243220.32947  20607611.3714   20607617.4654   20607610.7984

 -19094326.80549  -7771293.32847  21118238.0744   21118244.2874   21118237.6684

   2687636.10449   4960305.54045  25863340.7874   25863350.5454   25863340.8824

  -3353046.97549  13633772.99945  23788500.3294   23788508.2274   23788500.0344

  -9664633.89249  -4813116.47546  23649779.6044   23649787.5114   23649779.0194

 -14712721.48749  -1851168.77047  21735959.8044   21735967.1854   21735959.0694

 97  8 18  1  0  0.0000000  0  9G 1G14G22G25G29G 5G21G30G15
 -12395167.07149   8560856.94446  22242216.7544   22242223.5264   22242216.1044

 -14188232.10149 -10630489.94946  22515046.8774   22515053.8264   22515046.0984

  -4735439.44049  -3452726.54945  24698149.7664   24698156.7554   24698147.5784

 -23903892.15549  -7236043.79447  20609363.9644   20609370.1504   20609363.4154

 -19116397.62849  -7788491.36947  21114038.1394   21114044.1234   21114037.6664

   2767900.15649   5022848.93745  25878614.7014   25878624.3954   25878614.1084

  -3239376.76749  13722347.18445  23810131.1224   23810139.3504   23810129.8204

  -9638603.93849  -4792833.39346  23654732.8824   23654740.7284   23654733.2394

 -14656169.77049  -1807102.50847  21746721.2464   21746727.8204   21746720.2994

 97  8 18  1  0 30.0000000  0  9G 1G14G22G25G29G 5G21G30G15
 -12323926.38849   8616369.15946  22255773.3614   22255780.6294   22255772.3594

 -14263840.80049 -10689405.79846  22500659.0134   22500666.0214   22500657.9194

  -4832667.34249  -3528488.46745  24679647.7214   24679654.5384   24679646.0974

 -23894191.10049  -7228484.53247  20611210.0064   20611216.1624   20611209.3274

 -19138250.46049  -7805519.54347  21109879.6284   21109886.0574   21109878.7954

   2848523.55749   5085672.36245  25893956.9614   25893966.1384   25893957.1864

  -3125526.23749  13811061.85645  23831796.2064   23831803.4694   23831795.0424

  -9612007.42849  -4772108.84746  23659794.0774   23659801.4564   23659794.1554

 -14599060.84249  -1762602.06047  21757588.6984   21757596.5244   21757587.6554

 97  8 18  1  1  0.0000000  0  9G 1G14G22G25G29G 5G21G30G15
 -12252552.86649   8671984.88746  22269355.2604   22269362.3564   22269354.4274

 -14339243.05749 -10748160.78946  22486310.4134   22486317.6984   22486309.6124

  -4929931.42549  -3604278.57145  24661138.9254   24661147.1524   24661137.8104

 -23883979.00549  -7220527.04947  20613153.2964   20613159.4504   20613152.5214

 -19159873.53249  -7822368.68047  21105764.8714   21105771.0364   21105764.4734

   2929504.51949   5148774.42645  25909367.2474   25909376.1884   25909366.4294

  -3011477.00049  13899931.35645  23853499.0784   23853507.6584   23853498.3374

  -9584840.99949  -4750940.19846  23664963.7934   23664971.2774   23664963.5974

 -14541393.43649  -1717666.43447  21768562.4674   21768569.5604   21768561.3194

 97  8 18  1  1 30.0000000  0  9G 1G14G22G25G29G 5G21G30G15
 -12181038.18249   8727710.60946  22282964.0434   22282971.3744   22282962.9964

 -14414422.26049 -10806741.96846  22472004.2884   22472011.8394   22472003.7864

  -5027205.83949  -3680076.72345  24642628.3034   24642636.1144   24642626.9144

 -23873249.30649  -7212166.24647  20615195.0704   20615201.3214   20615194.5284

 -19181255.50349  -7839029.95147  21101696.0014   21101702.6314   21101695.3604

   3010855.21249   5212164.56845  25924847.7304   25924857.2134   25924847.6814

  -2897201.21949  13988977.39645  23875245.0044   23875254.1194   23875244.6824

  -9557091.43949  -4729317.17646  23670244.3804   23670251.7644   23670244.2014

 -14483158.37349  -1672288.47647  21779644.2414   21779651.7814   21779642.9074

 97  8 18  1  2  0.0000000  0  9G 1G14G22G25G29G 5G21G30G15
 -12109396.49049   8783535.29246  22296597.0354   22296603.6634   22296596.2984

 -14489376.65549 -10865147.97746  22457740.8914   22457748.4474   22457740.0804

  -5124491.92849  -3755883.97345  24624115.3204   24624123.3674   24624113.9514

 -23862010.79949  -7203408.96747  20617333.6744   20617339.6554   20617333.1874

 -19202427.67449  -7855527.74247  21097667.0774   21097673.2714   21097666.6894

   3092563.56549   5275833.42145  25940396.4374   25940404.0084   25940395.5184

  -2782695.98049  14078202.23645  23897034.5584   23897042.0034   23897033.3884

  -9528777.02949  -4707253.99346  23675632.3724   23675639.4094   23675631.7114

 -14424371.39149  -1626480.45347  21790831.0354   21790838.1534   21790830.2324

 97  8 18  1  2 30.0000000  0  9G 1G14G22G25G29G 5G21G30G15
 -12037639.56549   8839449.77946  22310251.9434   22310259.1134   22310251.0954

 -14564107.08849 -10923379.46646  22443520.1244   22443527.4284   22443519.1254

  -5221792.88049  -3831702.82745  24605599.4504   24605607.7084   24605598.5294

 -23850270.72949  -7194260.85947  20619567.7264   20619573.6894   20619567.2414

 -19223399.64949  -7871869.53147  21093676.2364   21093682.7354   21093675.6724

   3174625.60749   5339777.91045  25956012.3984   25956021.4534   25956010.1784

  -2667963.50249  14167604.13045  23918867.5404   23918875.7124   23918866.4634

  -9499900.55249  -4684752.84946  23681127.3764   23681134.8894   23681126.8174

 -14365047.72349  -1580254.22847  21802119.9184   21802127.0164   21802118.7674

 97  8 18  1  3  0.0000000  0  9G 1G14G22G25G29G 5G21G30G15
 -11965746.52049   8895470.33546  22323932.7484   22323939.5834   22323932.0934

 -14638578.81849 -10981409.37646  22429348.5534   22429356.3844   22429348.0854

  -5319096.81049  -3907524.01045  24587083.1344   24587091.0684   24587082.2374

 -23838028.34649  -7184721.33847  20621897.3624   20621903.7384   20621896.8984

 -19244144.69149  -7888034.49447  21089728.5604   21089734.6274   21089727.8854

   3257066.28349   5404017.40945  25971700.2024   25971709.5354   25971700.3264

  -2552990.72349  14257193.26445  23940746.2374   23940754.3534   23940745.4674

  -9470427.23649  -4661786.64646  23686736.0674   23686743.0154   23686735.7544

 -14305163.36149  -1533591.10247  21813515.4984   21813522.5964   21813514.3884

 97  8 18  1  3 30.0000000  0  9G 1G14G22G25G29G 5G21G30G15
 -11893726.73649   8951589.64846  22337637.6484   22337644.8574   22337636.8664

 -14712802.85149 -11039246.26446  22415224.2124   22415231.8324   22415223.6644

  -5416424.16449  -3983363.44845  24568562.3634   24568569.4604   24568560.8794

 -23825307.14649  -7174808.71247  20624318.1184   20624324.4074   20624317.6624

 -19264676.18549  -7904033.04847  21085821.5384   21085827.8664   21085821.1104

   3339873.35849   5468542.41845  25987457.7914   25987466.5564   25987457.3284

  -2437790.05549  14346959.98145  23962668.1424   23962676.2934   23962666.7114

  -9440356.60249  -4638354.98846  23692458.2904   23692466.0644   23692457.2634

 -14244729.12749  -1486499.50247  21825015.7584   21825023.1364   21825014.8774

 97  8 18  1  4  0.0000000  0  8G 1G14G22G25G29G21G30G15
 -11821582.34749   9007806.04846  22351366.2654   22351373.7554   22351365.2924

 -14786796.19349 -11096903.40246  22401143.6974   22401151.6604   22401142.3224

  -5513768.29849  -4059215.95745  24550038.3694   24550045.6924   24550036.8834

 -23812119.83849  -7164532.88747  20626827.5874   20626833.6824   20626826.8954

 -19284991.97349  -7919863.52147  21081955.5764   21081961.8984   21081955.1964

  -2322368.06849  14436899.17345  23984632.1634   23984640.5674   23984630.3764

  -9409698.96649  -4614465.92146  23698292.2094   23698300.0034   23698292.2444

 -14183749.49949  -1438982.93547  21836619.8604   21836627.1764   21836618.9734

 97  8 18  1  4 30.0000000  0  8G 1G14G22G25G29G21G30G15
 -11749298.51449   9064131.10946  22365121.3824   22365128.2514   22365120.0104

 -14860568.97849 -11154388.67146  22387105.1944   22387112.0884   22387104.3604

  -5611121.15949  -4135075.27045  24531512.6254   24531519.9664   24531510.1594

 -23798490.63749  -7153912.72647  20629421.1254   20629427.2664   20629420.3394

 -19305077.43249  -7935514.51747  21078133.4244   21078139.8274   21078133.1724

  -2206715.98249  14527017.66845  24006639.9914   24006647.6074   24006639.1604

  -9378439.42849  -4590107.83946  23704240.6934   23704247.6174   23704240.0664

 -14122223.53349  -1391040.64247  21848327.9154   21848334.6194   21848327.1284

 97  8 18  1  5  0.0000000  0  8G 1G14G22G25G29G21G30G15
 -11676878.62849   9120562.18746  22378902.4264   22378909.3984   22378901.5894

 -14934132.15349 -11211710.61246  22373106.6074   22373114.1674   22373105.5814

  -5708508.36849  -4210961.35045  24512980.3914   24512987.5894   24512978.3684

 -23784432.17249  -7142958.07747  20632096.3514   20632102.5604   20632095.9874

 -19324945.89849  -7950996.43547  21074352.5944   21074358.9874   21074351.9804

  -2090843.11749  14617308.17945  24028690.0344   24028698.3364   24028689.2854

  -9346592.48949  -4565292.05145  23710301.0024   23710308.9474   23710300.8504

 -14060159.50649  -1342679.07247  21860138.3214   21860145.8224   21860137.3024

 97  8 18  1  5 30.0000000  0  8G 1G14G22G25G29G21G30G15
 -11604295.01949   9177120.84846  22392714.6264   22392721.7804   22392713.7474

 -15007472.08149 -11268858.59446  22359150.4464   22359157.7264   22359149.6734

  -5805898.46249  -4286849.66945  24494447.4864   24494454.5814   24494445.4984

 -23769915.42749  -7131646.32547  20634858.7744   20634864.7974   20634857.9754

 -19344591.11549  -7966304.38347  21070614.2364   21070620.5924   21070613.8684

  -1974727.64449  14707787.74645  24050786.0474   24050794.2984   24050784.7684

  -9314167.01849  -4540025.45445  23716471.3584   23716479.3154   23716470.6394

 -13997546.62549  -1293889.81946  21872053.0994   21872059.9234   21872051.8044

 97  8 18  1  6  0.0000000  0  8G 1G14G22G25G29G21G30G15
 -11531557.73849   9233799.24346  22406556.0344   22406563.0064   22406555.0754

 -15080599.51749 -11325841.01746  22345234.7284   22345241.8284   22345233.7874

  -5903302.07149  -4362748.54545  24475912.2014   24475919.0924   24475910.1404

 -23754959.71449  -7119992.52347  20637704.7664   20637711.1704   20637704.0854

 -19364037.89849  -7981457.71447  21066913.6654   21066919.9584   21066913.1104

  -1858419.37749  14798417.53245  24072918.7724   24072926.9204   24072918.1164

  -9281195.11649  -4514333.06545  23722745.6124   23722752.8634   23722744.9354

 -13934414.86049  -1244696.25946  21884066.6264   21884073.6054   21884065.6274

 97  8 18  1  6 30.0000000  0  8G 1G14G22G25G29G21G30G15
 -11458632.74449   9290623.90846  22420433.1734   22420440.4014   22420432.2884

 -15153470.01749 -11382623.21346  22331367.9164   22331374.9474   22331367.3364

  -6000715.90849  -4438655.38445  24457374.9524   24457382.9474   24457372.5034

 -23739515.74949  -7107958.26447  20640643.6474   20640649.8854   20640642.9804

 -19383266.73649  -7996441.22147  21063254.5074   21063260.9434   21063253.9934

  -1741909.32149  14889204.54645  24095089.9164   24095098.1604   24095088.9674

  -9247650.42249  -4488194.34945  23729128.8564   23729136.2784   23729127.7874

 -13870743.39349  -1195082.14846  21896182.8864   21896189.9714   21896181.4094

 97  8 18  1  7  0.0000000  0  8G 1G14G22G25G29G21G30G15
 -11385534.89249   9347583.27146  22434343.1434   22434350.1274   22434342.9284

 -15226089.06849 -11439209.48946  22317548.9994   22317556.4534   22317548.4634

  -6098143.25949  -4514572.76745  24438835.0944   24438841.3704   24438833.7874

 -23723558.30549  -7095523.89747  20643680.2264   20643686.5784   20643679.7884

 -19402289.95049  -8011264.50347  21059634.4694   21059640.6754   21059633.9394

  -1625224.87949  14980127.47545  24117294.2244   24117302.1554   24117293.3954

  -9213551.12249  -4461623.48045  23735617.6624   23735624.7824   23735617.5744

 -13806538.67849  -1145052.51846  21908400.6674   21908407.8104   21908399.8104

 97  8 18  1  7 30.0000000  0  8G 1G14G22G25G29G21G30G15
 -11312291.31849   9404656.17746  22448280.9934   22448288.1924   22448280.3694

 -15298483.81349 -11495620.96046  22303772.7084   22303779.6914   22303771.6804

  -6195586.90649  -4590502.82645  24420292.2674   24420300.7204   24420290.4854

 -23707096.25349  -7082696.32047  20646812.8654   20646819.0254   20646812.1694

 -19421129.58149  -8025944.72247  21056049.3864   21056055.8374   21056049.1414

  -1508401.55349  15071158.61845  24139524.9544   24139532.6894   24139523.9654

  -9178925.41149  -4434642.42545  23742206.6614   23742214.7524   23742205.9034

 -13741824.81949  -1094626.14446  21920715.2864   21920722.7154   21920714.1754

 97  8 18  1  8  0.0000000  0  8G 1G14G22G25G29G21G30G15
 -11238907.89949   9461838.05946  22462245.4254   22462252.4084   22462244.5224

 -15370635.62149 -11551843.14246  22290042.6164   22290049.5254   22290041.5454

  -6293028.73349  -4666431.47745  24401749.6864   24401756.2234   24401747.5424

 -23690109.41249  -7069459.81947  20650045.3224   20650051.6714   20650044.8014

 -19439764.45749  -8040465.39547  21052503.2864   21052509.8254   21052502.8964

  -1391416.57349  15162315.74845  24161786.4674   24161794.5674   24161785.6544

  -9143742.94049  -4407227.52045  23748901.7064   23748909.5914   23748901.6184

 -13676582.15749  -1043787.72246  21933130.6104   21933137.8114   21933129.7504

 97  8 18  1  8 30.0000000  0  8G 1G14G22G25G29G21G30G15
 -11165402.37249   9519115.09646  22476233.0094   22476239.8384   22476231.8784

 -15442545.19949 -11607876.56646  22276358.6884   22276365.4294   22276357.8484

  -6390460.91649  -4742352.59245  24383208.8934   24383215.7624   24383207.3274

 -23672598.84449  -7055815.22247  20653377.5174   20653383.6954   20653376.9654

 -19458187.50949  -8054821.01047  21048997.4854   21049003.7994   21048997.3324

  -1274238.82449  15253623.04645  24184084.5134   24184092.2314   24184082.4184

  -9107985.67749  -4379364.72945  23755706.0264   23755713.1054   23755706.0674

 -13610803.26649   -992531.45546  21945647.9234   21945655.1614   21945646.4154

 97  8 18  1  9  0.0000000  0  8G 1G14G22G25G29G21G30G15
 -11091801.61849   9576466.32546  22490238.7744   22490246.2414   22490238.0324

 -15514236.99349 -11663740.28146  22262716.1304   22262723.0834   22262715.6134

  -6487876.02349  -4818260.41745  24364671.4254   24364678.3254   24364669.9904

 -23654599.30349  -7041789.60347  20656802.7004   20656809.0534   20656802.3934

 -19476406.55349  -8069017.65947  21045530.5634   21045536.8604   21045530.2034

  -1156868.25549  15345080.60345  24206419.3374   24206428.1204   24206418.8154

  -9071657.92649  -4351057.40345  23762618.9944   23762626.9224   23762618.4424

 -13544502.85849   -940868.81946  21958264.4954   21958271.1154   21958263.3014

 97  8 18  1  9 30.0000000  0  8G 1G14G22G25G29G21G30G15
 -11018112.53049   9633886.37346  22504261.3584   22504268.4054   22504260.5554

 -15585711.20149 -11719434.46246  22249115.0374   22249121.8354   22249114.2094

  -6585283.85249  -4894162.55545  24346135.3584   24346142.5974   24346133.6124

 -23636144.17449  -7027408.98247  20660314.6344   20660320.7914   20660313.8924

 -19494417.42749  -8083052.10847  21042103.2164   21042109.2604   21042102.7954

  -1039300.24149  15436691.97645  24228791.8674   24228799.6044   24228791.2174

  -9034764.94849  -4322309.63745  23769639.5864   23769647.7724   23769639.5214

 -13477696.25049   -888811.73646  21970977.4054   21970984.0394   21970976.1804

 97  8 18  1 10  0.0000000  0  8G 1G14G22G25G29G21G30G15
 -10944333.15449   9691376.80246  22518301.1434   22518308.2554   22518300.8254

 -15656954.72649 -11774948.89346  22235557.8414   22235564.6194   22235557.4144

  -6682684.03849  -4970058.75245  24327600.6474   24327607.9474   24327599.2434

 -23617247.51449  -7012684.31747  20663910.5444   20663916.9274   20663909.8734

 -19512203.47749  -8096911.36547  21038718.6394   21038725.3164   21038718.0194

   -921519.47049  15528469.18345  24251204.8854   24251212.3824   24251204.3914

  -8997287.82949  -4293106.70845  23776771.3494   23776779.7304   23776770.9844

 -13410383.07049   -836359.92746  21983786.6664   21983794.0434   21983785.3224

 97  8 18  1 10 30.0000000  0  8G 1G14G22G25G29G21G30G15
 -10870407.91449   9748980.86546  22532368.6694   22532375.9504   22532367.8964

 -15727925.04449 -11830250.41946  22222052.6534   22222059.3284   22222052.3034

  -6780034.49449  -5045916.20945  24309075.5174   24309082.6594   24309074.0784

 -23597874.41749  -6997588.39347  20667597.0664   20667603.2404   20667596.4814

 -19529719.93949  -8110560.54847  21035385.3994   21035391.6584   21035384.9864

   -803497.68649  15620434.21345  24273663.7594   24273671.2674   24273662.6834

  -8959192.74249  -4263422.24345  23784020.5514   23784028.7174   23784020.3254

 -13342524.49349   -783483.12946  21996699.7264   21996707.4514   21996698.4334

 97  8 18  1 11  0.0000000  0  8G 1G14G22G25G29G21G30G15
 -10796373.18249   9806670.24446  22546457.0614   22546464.3594   22546455.8934

 -15798659.72649 -11885368.34946  22208592.3184   22208599.3194   22208591.5924

  -6877384.79249  -5121773.53145  24290550.2774   24290557.9684   24290548.7634

 -23578064.74449  -6982152.28847  20671366.7254   20671372.8644   20671366.4014

 -19547015.99749  -8124037.99947  21032094.0134   21032100.3874   21032093.5054

   -685291.33649  15712543.05745  24296157.5054   24296166.4044   24296158.5094

  -8920554.43449  -4233314.46745  23791373.0564   23791381.0734   23791372.7354

 -13274170.71549   -730220.46646  22009707.0114   22009714.9164   22009705.8284

 97  8 18  1 11 30.0000000  0  8G 1G14G22G25G29G21G30G15
 -10722228.30649   9864445.46546  22560566.3974   22560573.4824   22560565.2664

 -15869147.18149 -11940293.63246  22195179.0054   22195186.1034   22195178.3984

  -6974739.86949  -5197634.58745  24272024.1604   24272031.4774   24272023.2384

 -23557817.34949  -6966375.09847  20675219.6674   20675226.0344   20675219.4234

 -19564099.96349  -8137350.18747  21028843.0484   21028849.4934   21028842.9454

   -566919.80149  15804780.59545  24318682.7444   24318690.7274   24318681.1674

  -8881383.95649  -4202792.03645  23798827.0044   23798834.6914   23798827.0754

 -13205324.58949   -676574.15646  22022808.0014   22022815.0444   22022807.0884

 97  8 18  1 12  0.0000000  0  8G 1G14G22G25G29G21G30G15
 -10647960.86249   9922316.19046  22574699.0664   22574706.1104   22574698.3824

 -15939360.45849 -11995005.24746  22181817.8704   22181824.6704   22181816.6484

  -7072090.25949  -5273491.97445  24253499.0504   24253505.9514   24253497.5634

 -23537104.66249  -6950235.33447  20679161.1484   20679167.4804   20679160.6754

 -19580970.34649  -8150495.93347  21025632.7274   21025638.9134   21025632.2284

   -448372.62749  15897154.97145  24341241.5624   24341248.5434   24341240.6104

  -8841659.99949  -4171838.31845  23806386.3504   23806394.5914   23806385.8324

 -13135967.96049   -622530.03546  22036006.1434   22036013.5914   22036005.0614

 97  8 18  1 12 30.0000000  0  8G 1G14G22G25G29G21G30G15
 -10573575.60749   9980278.71646  22588854.1524   22588861.1554   22588853.4124

 -16009314.94549 -12049515.22346  22168505.9664   22168513.2274   22168505.3234

  -7169446.13049  -5349353.63045  24234972.7084   24234979.7554   24234970.6594

 -23515934.04149  -6933738.75247  20683189.7924   20683196.0894   20683189.1964

 -19597652.56549  -8163495.06447  21022458.1774   21022464.4404   21022457.7854

   -329672.21349  15989648.78945  24363829.5384   24363838.2744   24363829.6124

  -8801403.73849  -4140469.82645  23814046.9104   23814054.3414   23814046.6694

 -13066119.41249   -568102.60946  22049297.8994   22049305.0754   22049296.7794

 97  8 18  1 13  0.0000000  0  8G 1G14G22G25G29G21G30G15
 -10499081.50649  10038326.06146  22603029.9674   22603036.1744   22603029.1894

 -16079024.37449 -12103834.23846  22155240.6904   22155248.0744   22155240.3764

  -7266822.64149  -5425231.37545  24216442.4704   24216449.5644   24216440.6374

 -23494327.40649  -6916902.40847  20687301.3634   20687307.5254   20687300.8204

 -19614162.44549  -8176359.90047  21019316.4454   21019322.7664   21019316.3804

   -210832.70349  16082250.99445  24386443.9914   24386452.5744   24386443.6764

  -8760611.75749  -4108683.87245  23821809.2954   23821817.1454   23821808.5654

 -12995803.13549   -513310.72546  22062678.6534   22062685.7104   22062677.8364

 97  8 18  1 13 30.0000000  0  8G 1G14G22G25G29G21G30G15
 -10424416.00649  10096506.96446  22617238.3104   22617245.3534   22617237.1934

 -16148426.27949 -12157913.62646  22142033.9794   22142040.9794   22142033.5294

  -7364156.70449  -5501076.04745  24197920.3134   24197927.4374   24197918.9194

 -23472228.36749  -6899682.38447  20691506.6434   20691512.7604   20691506.1584

 -19630430.59249  -8189036.37847  21016220.7304   21016227.0724   21016220.2134

    -91794.12049  16175008.32345  24409096.3964   24409104.5894   24409095.7854

  -8719201.80549  -4076416.39045  23829689.3464   23829697.1114   23829689.1794

 -12924965.04849   -458112.22946  22076158.7304   22076165.7294   22076157.7944

 97  8 18  1 14  0.0000000  0  8G 1G14G22G25G29G21G30G15
 -10349582.11649  10154819.08746  22631478.6784   22631485.8414   22631477.1244

 -16217547.52749 -12211774.31946  22128880.6184   22128887.9414   22128880.1954

  -7461455.96149  -5576893.59445  24179404.7554   24179411.6294   24179403.1974

 -23449655.18949  -6882092.88947  20695802.1784   20695808.3434   20695801.5254

 -19646468.22749  -8201533.22947  21013168.8424   21013175.1644   21013168.2964

     27448.98849  16267925.02145  24431787.5854   24431796.0894   24431786.9264

  -8677191.91949  -4043681.43345  23837683.5854   23837691.1334   23837683.3254

 -12853623.08149   -402521.10046  22089734.6944   22089742.0204   22089733.9554

 97  8 18  1 14 30.0000000  0  9G 1G14G22G25G29G16G21G30G15
 -10274577.45849  10213264.26546  22645751.5624   22645758.3434   22645750.9034

 -16286391.55749 -12265418.99446  22115780.0744   22115787.0944   22115779.6544

  -7558701.91349  -5652669.59345  24160899.4364   24160907.2024   24160898.2984

 -23426614.13349  -6864138.81947  20700186.6944   20700192.6294   20700186.0494

 -19662267.90149  -8213844.65747  21010162.2614   21010168.5314   21010161.8584

   -294355.01149   -210293.35643

    146889.20349  16360995.30945  24454516.4294   24454524.0374   24454515.5714

  -8634601.70849  -4010494.26445  23845788.2934   23845795.8194   23845787.2854

 -12781782.03949   -346541.08446  22103405.5614   22103413.2044   22103404.5514

 97  8 18  1 15  0.0000000  0  9G 1G14G22G25G29G16G21G30G15
 -10199444.22149  10271809.63246  22660048.9474   22660056.1824   22660047.7054

 -16354982.30349 -12318866.30846  22102727.6544   22102734.8084   22102726.7514

  -7655931.63549  -5728432.96345  24142397.2294   24142405.2864   24142396.4874

 -23403136.43249  -6845844.50947  20704654.3444   20704660.8514   20704654.0064

 -19677856.85749  -8225991.89647  21007195.7764   21007202.2944   21007195.4714

   -388220.37549    -59121.56343

    266497.51349  16454196.56445  24477277.2544   24477285.0634   24477277.1344

  -8591475.27149  -3976889.26845  23853995.0434   23854002.2384   23853995.3634

 -12709472.41749   -290195.94446  22117165.6464   22117172.3644   22117164.3364

 97  8 18  1 15 30.0000000  0  9G 1G14G22G25G29G16G21G30G15
 -10124225.88949  10330421.31146  22674362.5344   22674369.8204   22674361.2364

 -16423352.14949 -12372141.49646  22089717.2674   22089723.9424   22089715.9384

  -7753165.89449  -5804199.85845  24123894.0944   24123900.4664   24123893.2964

 -23379243.93849  -6827226.98347  20709200.9974   20709207.2254   20709200.5394

 -19693264.30949  -8237997.70147  21004263.8274   21004270.2154   21004263.5014

   -482152.46049   -132315.11343

    386248.76049  16547509.17645  24500065.1854   24500073.1684   24500063.9994

  -8547868.49349  -3942909.97445  23862293.1534   23862300.4154   23862292.5994

 -12636717.12149   -233503.52246  22131010.5544   22131017.7124   22131009.7414

 97  8 18  1 16  0.0000000  0  9G 1G14G22G25G29G16G21G30G15
 -10048851.23549  10389154.80946  22688705.8354   22688712.9464   22688705.5264

 -16491417.94549 -12425179.76146  22076764.7384   22076772.1704   22076763.8844

  -7850309.76849  -5879896.33845  24105408.1954   24105414.4434   24105406.8644

 -23354861.51449  -6808227.69647  20713840.8114   20713847.0954   20713840.2174

 -19708413.11449  -8249801.96247  21001381.1214   21001387.2374   21001380.5174

   -576062.40549   -205491.72244  25406700.0474

    506211.99949  16640986.99245  24522893.5444   24522902.4784   24522891.9354

  -8503709.05749  -3908500.02945  23870696.3004   23870703.9584   23870696.1414

 -12563432.84149   -176398.90746  22144956.0504   22144962.9974   22144954.9174

 97  8 18  1 16 30.0000000  0  9G 1G14G22G25G29G16G21G30G15
  -9973368.27249  10447972.69746  22703069.7604   22703077.0544   22703068.4034

 -16559191.77549 -12477990.51346  22063867.7644   22063874.8244   22063866.9634

  -7947396.56049  -5955548.35645  24086933.1484   24086940.1324   24086931.0154

 -23330019.88449  -6788870.58047  20718568.0084   20718574.2364   20718567.4344

 -19723328.16049  -8261424.06947  20998542.8474   20998549.1164   20998542.4124

   -669984.55249   -278677.77245  25388818.0254   25388826.1714   25388817.4774

    626340.09149  16734593.29545  24545753.2634   24545760.5964   24545752.4594

  -8459016.02649  -3873674.30845  23879201.1514   23879208.4624   23879200.7434

 -12489654.92449   -118909.64446  22158995.5134   22159003.3814   22158994.5574

 97  8 18  1 17  0.0000000  0  9G 1G14G22G25G29G16G21G30G15
  -9897803.91349  10506854.01846  22717449.1984   22717456.3164   22717448.2484

 -16626701.97649 -12530595.85046  22051020.9634   22051028.2554   22051020.1664

  -8044446.71349  -6031171.80345  24068465.1254   24068471.6104   24068464.0094

 -23304746.36149  -6769176.92947  20723377.4164   20723383.9444   20723376.8854

 -19738030.98649  -8272880.81447  20995744.9984   20995751.5204   20995744.7184

   -763928.26449   -351880.62245  25370941.1654   25370950.3864   25370939.8644

    746614.73249  16828313.78945  24568640.7414   24568649.3704   24568639.8454

  -8413798.36849  -3838439.77945  23887805.8874   23887813.5044   23887805.9564

 -12415410.84349    -61057.12846  22173123.6964   22173131.2334   22173122.5474

 97  8 18  1 17 30.0000000  0  9G 1G14G22G25G29G16G21G30G15
  -9822143.63349  10565810.08246  22731846.8964   22731854.0324   22731845.7514

 -16693934.64349 -12582984.92646  22038226.9644   22038233.9594   22038226.0144

  -8141439.25249  -6106750.36845  24050008.0754   24050015.0844   24050007.4964

 -23279036.46949  -6749143.25047  20728269.8524   20728276.2954   20728269.2584

 -19752516.38649  -8284168.13647  20992988.5324   20992994.7004   20992988.1274

   -857868.19949   -425080.51445  25353065.3114   25353074.5694   25353064.5594

    867040.78949  16922152.25845  24591556.8634   24591565.1614   24591555.4104

  -8368039.98449  -3802783.90045  23896513.4754   23896521.3134   23896512.7384

 -12340700.95949     -2841.65246  22187340.5264   22187348.3854   22187339.2154

 97  8 18  1 18  0.0000000  0  9G 1G14G22G25G29G16G21G30G15
  -9746375.33649  10624850.31846  22746265.0464   22746272.0854   22746264.2094

 -16760873.66449 -12635145.18547  22025488.8334   22025496.2694   22025488.1024

  -8238368.18249  -6182279.37045  24031563.0474   24031569.7534   24031561.5364

 -23252882.04549  -6728763.18647  20733246.8704   20733253.1104   20733246.4124

 -19766782.48349  -8295284.57047  20990273.7284   20990280.3654   20990273.4164

   -951795.98349   -498270.92745  25335191.3404   25335200.0004   25335189.6434

    987610.61549  17016102.72945  24614500.3944   24614508.5424   24614499.5174

  -8321720.37249  -3766690.72145  23905327.8414   23905335.3274   23905327.6564

 -12265529.89849     55733.18146  22201645.0894   22201651.9924   22201643.9324

 97  8 18  1 18 30.0000000  0  9G 1G14G22G25G29G16G21G30G15
  -9670482.97349  10683987.22246  22760706.8294   22760714.2634   22760706.4414

 -16827512.31949 -12687071.39247  22012807.9124   22012814.9684   22012807.5104

  -8335226.89049  -6257753.64045  24013131.4154   24013139.5994   24013130.1764

 -23226268.43849  -6708025.31347  20738311.2804   20738317.5024   20738310.7764

 -19780828.02549  -8306229.14147  20987600.9494   20987607.6074   20987600.7364

  -1045702.07248   -571444.42945  25317321.3654   25317331.1654   25317320.0344

   1108339.11549  17110176.83645  24637474.1904   24637483.2904   24637473.6924

  -8274820.18549  -3730145.13045  23914252.6394   23914260.7824   23914252.5674

 -12189893.02249    114670.98946  22216038.2914   22216045.2104   22216037.2074

 97  8 18  1 19  0.0000000  0  9G 1G14G22G25G29G16G21G30G15
  -9594437.69349  10743243.28746  22775177.8364   22775184.6574   22775176.7634

 -16893844.19949 -12738758.56647  22000185.3674   22000192.4664   22000183.9704

  -8431992.20949  -6333155.14645  23994717.6144   23994724.3484   23994716.4434

 -23199171.44449  -6686910.77547  20743467.6764   20743474.0404   20743467.2364

 -19794656.44049  -8317004.53047  20984969.4884   20984975.9274   20984968.8584

  -1139572.02648   -644589.78545  25299458.6224   25299468.1934   25299458.1004

   1229233.70949  17204380.36345  24660479.5374   24660488.1194   24660478.2064

  -8227333.05349  -3693142.19045  23923289.0824   23923296.7634   23923289.2124

 -12113778.24849    173981.18646  22230522.4214   22230529.2754   22230521.5604

 97  8 18  1 19 30.0000000  0  9G 1G14G22G25G29G16G21G30G15
  -9518261.10149  10802601.66246  22789673.7584   22789680.7644   22789673.3474

 -16959888.79049 -12790221.86947  21987617.4574   21987624.9004   21987616.7904

  -8528688.69849  -6408503.00645  23976316.7904   23976324.1424   23976314.9134

 -23171616.32049  -6665439.25047  20748711.2734   20748717.6334   20748710.6674

 -19808294.71749  -8327631.75047  20982374.1974   20982380.5374   20982373.7654

  -1233431.81849   -717727.20445  25281597.6394   25281606.5824   25281597.0954

   1350259.81849  17298686.40245  24683510.1534   24683517.2414   24683510.0924

  -8179284.23549  -3655701.56045  23932432.4884   23932439.8744   23932431.6824

 -12037211.04249    233643.93346  22245092.6824   22245100.1144   22245091.9834

 97  8 18  1 20  0.0000000  0  9G 1G14G22G25G29G16G21G30G15
  -9441958.75049  10862058.03446  22804193.5894   22804199.6184   22804192.2664

 -17025654.53149 -12841467.88647  21975102.6404   21975109.3894   21975101.6544

  -8625318.65949  -6483799.02445  23957928.6874   23957935.6704   23957927.8624

 -23143609.92249  -6643616.08747  20754040.7124   20754047.2074   20754040.1974

 -19821746.77349  -8338113.86547  20979814.3594   20979820.9074   20979814.0474

  -1327277.50949   -790853.66345  25263739.3884   25263749.5094   25263740.0174

   1471405.33749  17393085.49745  24706563.3904   24706571.3534   24706562.2434

  -8130673.63049  -3617823.17345  23941682.8734   23941689.5824   23941682.2884

 -11960193.50549    293657.58146  22259748.6434   22259755.8364   22259747.8174

 97  8 18  1 20 30.0000000  0  9G 1G14G22G25G29G16G21G30G15
  -9365508.59549  10921629.58046  22818741.5914   22818748.1444   22818739.8154

 -17091124.02749 -12892483.06047  21962644.2074   21962651.4934   21962643.6884

  -8721867.57949  -6559031.89445  23939555.9474   23939563.5324   23939554.2114

 -23115147.16149  -6621437.31247  20759456.9894   20759463.3314   20759456.4274

 -19834993.12749  -8348435.69447  20977293.6654   20977300.0844   20977293.3924

  -1421083.61049   -863949.28445  25245888.7594   25245898.0904   25245888.8154

   1592691.06149  17487593.87344  24729643.3504   24729649.3264   24729643.3844

  -8081487.47149  -3579496.31245  23951042.6734   23951049.5914   23951042.7684

 -11882707.44749    354036.31446  22274493.8014   22274501.4264   22274492.6604

 97  8 18  1 21  0.0000000  0  9G 1G14G22G25G29G16G21G30G15
  -9288920.76249  10981308.39846  22833315.7354   22833322.0404   22833314.8854

 -17156302.82049 -12943271.72447  21950241.1014   21950248.3724   21950240.9144

  -8818349.42649  -6634212.49645  23921195.9794   23921203.4984   23921194.2624

 -23086252.38149  -6598921.90347  20764955.4644   20764961.6964   20764955.1014

 -19848036.94449  -8358599.70147  20974811.4774   20974817.8244   20974811.0804

  -1514861.86449   -937023.22545  25228043.3364   25228052.2394   25228043.5494

   1714103.28749  17582200.82044  24752747.3874   24752753.3834   24752746.6504

  -8031755.65249  -3540744.26145  23960506.2874   23960513.3654   23960506.1074

 -11804767.89249    414768.41646  22289325.2104   22289332.0274   22289324.0824

 97  8 18  1 21 30.0000000  0  9G 1G14G22G25G29G16G21G30G15
  -9212219.84549  11041075.33846  22847911.4694   22847918.9904   22847911.2404

 -17221203.06849 -12993843.34047  21937890.9854   21937897.8594   21937890.4844

  -8914782.57149  -6709355.15845  23902845.3594   23902852.5834   23902843.7864

 -23056948.49749  -6576087.71047  20770531.8554   20770537.9434   20770531.3004

 -19860867.98049  -8368597.89747  20972369.7714   20972376.1164   20972369.4214

  -1608618.76149  -1010080.52245  25210202.0014   25210211.5794   25210200.7714

   1835638.78949  17676903.87245  24775874.8374   24775883.7444   24775874.8294

  -7981494.76049  -3501579.93145  23970070.6274   23970078.4594   23970071.4054

 -11726386.56449    475844.76646  22304240.6894   22304247.6364   22304239.8664

 97  8 18  1 22  0.0000000  0  9G 1G14G22G25G29G16G21G30G15
  -9135401.93349  11100933.44846  22862529.4004   22862536.5814   22862528.6414

 -17285808.74749 -13044185.42047  21925596.9294   21925604.0714   21925596.5354

  -9011158.95949  -6784453.59545  23884505.4524   23884513.7774   23884504.5224

 -23027214.48749  -6552918.35347  20776190.0154   20776196.2784   20776189.4934

 -19873472.12049  -8378419.29447  20969971.3094   20969977.7234   20969970.9914

  -1702343.05049  -1083112.41545  25192366.8764   25192375.6594   25192366.2684

   1957313.79649  17771715.57845  24799028.9434   24799038.2524   24799027.7404

  -7930699.98649  -3461999.59645  23979736.5234   23979744.5464   23979736.1144

 -11647554.30349    537272.49046  22319241.9764   22319249.7464   22319240.9114

 97  8 18  1 22 30.0000000  0  9G 1G14G22G25G29G16G21G30G15
  -9058486.29549  11160867.70046  22877165.9484   22877173.0624   22877165.4084

 -17350113.61449 -13094293.10247  21913360.1034   21913366.8964   21913359.3074

  -9107485.92249  -6859513.50745  23866174.9244   23866182.0854   23866173.8024

 -22997061.10849  -6529422.21447  20781928.0044   20781934.4084   20781927.5514

 -19885854.40649  -8388067.82047  20967615.0454   20967621.4304   20967614.6524

  -1796052.46049  -1156132.70145  25174534.6844   25174543.6244   25174532.9934

   2079132.56049  17866639.29745  24822210.3184   24822217.5154   24822209.8224

  -7879386.20649  -3422014.85745  23989501.2284   23989508.4824   23989501.1644

 -11568285.68449    599040.23746  22334326.2854   22334334.1274   22334325.2684

 97  8 18  1 23  0.0000000  0  9G 1G14G22G25G29G16G21G30G15
  -8981466.21549  11220883.34246  22891822.4154   22891829.6034   22891821.8124

 -17414093.02449 -13144147.18047  21901185.2154   21901192.3874   21901184.7354

  -9203730.60049  -6934509.30045  23847860.1274   23847867.9594   23847858.6114

 -22966460.76449  -6505577.79047  20787750.9984   20787757.6144   20787750.3904

 -19897988.19649  -8397522.71047  20965306.0244   20965312.3584   20965305.4414

  -1889741.59149  -1229137.21845  25156706.3334   25156713.4264   25156705.9554

   2201115.93049  17961691.30045  24845422.9434   24845431.1404   24845422.3324

  -7827553.86249  -3381626.02045  23999364.5964   23999373.1014   23999364.9054

 -11488568.33549    661157.63446  22349496.0144   22349503.2964   22349495.2464

 97  8 18  1 23 30.0000000  0  9G 1G14G22G25G29G16G21G30G15
  -8904367.22849  11280960.46546  22906493.8834   22906501.3594   22906493.2654

 -17477755.51149 -13193754.30547  21889070.6444   21889077.9204   21889070.2124

  -9299894.22949  -7009441.94345  23829560.8294   23829568.9494   23829559.3094

 -22935425.65549  -6481394.58847  20793656.7764   20793663.1714   20793656.3914

 -19909885.90849  -8406793.64347  20963041.9524   20963048.1924   20963041.4684

  -1983421.01249  -1302134.16545  25138879.8944   25138884.5574   25138878.6764

   2323252.08849  18056862.33545  24868664.6684   24868672.3304   24868664.7624

  -7775208.85349  -3340837.72045  24009325.4854   24009333.8674   24009325.0604

 -11408420.52549    723610.46146  22364747.6694   22364755.4274   22364746.9484

 97  8 18  1 24  0.0000000  0  9G 1G14G22G25G29G16G21G30G15
  -8827183.87149  11341103.33946  22921181.4224   22921188.4824   22921181.2964

 -17541089.73549 -13243105.64247  21877018.5204   21877025.9114   21877017.9264

  -9395957.61049  -7084296.46545  23811280.5874   23811288.2214   23811279.4044

 -22903959.77249  -6456875.71847  20799644.5094   20799650.9734   20799643.9364

 -19921561.71949  -8415891.67047  20960820.0864   20960826.7824   20960819.7364

  -2077104.57549  -1375134.33145  25121052.6434   25121060.6624   25121050.5594

   2445532.72049  18152145.96045  24891933.9514   24891942.9704   24891933.3334

  -7722339.95049  -3299641.17745  24019386.0544   24019394.5044   24019385.8854

 -11327851.18349    786391.74646  22380079.5114   22380086.8854   22380078.8144

 97  8 18  1 24 30.0000000  0  9G 1G14G22G25G29G16G21G30G15
  -8749881.02649  11401339.30946  22935891.6574   22935899.4314   22935891.2134

 -17604080.36849 -13292189.23947  21865031.7494   21865038.9244   21865030.9644

  -9491887.82549  -7159047.21745  23793025.5724   23793033.5924   23793024.0824

 -22872050.93049  -6432011.68147  20805716.5704   20805723.1354   20805716.1124

 -19932992.76849  -8424798.97247  20958644.8614   20958651.1734   20958644.5924

  -2170780.51449  -1448128.52545  25103226.6244   25103231.7984   25103225.4094

   2567975.29949  18247555.73445  24915233.8584   24915241.8274   24915230.9554

  -7668931.51449  -3258024.22345  24029549.2834   24029556.9714   24029548.4304

 -11246843.83649    849514.35046  22395494.7464   22395501.8864   22395493.3934

 97  8 18  1 25  0.0000000  0  9G 1G14G22G25G29G16G21G30G15
  -8672481.36049  11461650.73546  22950620.3444   22950626.7714   22950618.9374

 -17666781.78449 -13341047.47347  21853100.0404   21853107.2394   21853099.6744

  -9587716.47749  -7233718.86045  23774789.9234   23774797.1644   23774788.6664

 -22839720.66149  -6406819.26447  20811868.8344   20811875.1584   20811868.3634

 -19944209.63249  -8433539.37847  20956510.3704   20956516.6274   20956509.8904

  -2264475.08349  -1521137.23444  25085396.9414   25085404.4494   25085396.2724

   2690535.11249  18343056.84045  24938556.0234   24938565.2614   24938554.6584

  -7615009.87549  -3216007.37245  24039810.3204   24039816.8074   24039810.5054

 -11165429.62449    912953.96246  22410987.2994   22410995.0074   22410986.3074

